Time,TemperatureF,DewpointF,PressureIn,WindDirection,WindDirectionDegrees,WindSpeedMPH,WindSpeedGustMPH,Humidity,HourlyPrecipIn,Conditions,Clouds,dailyrainin,SolarRadiationWatts/m^2,SoftwareType,DateUTC
2013-05-03 00:00:00,50.4,45.3,30.17,WNW,302,4.0,6.0,83,0.00,,,-99.99,0.0,meteobridge,2013-05-03 05:00:00,
2013-05-03 00:02:00,50.4,45.3,30.17,NW,326,0.9,8.9,83,0.00,,,0.00,0.0,meteobridge,2013-05-03 05:02:00,
2013-05-03 00:03:00,50.4,45.3,30.18,NW,326,0.9,6.9,83,0.00,,,0.00,0.0,meteobridge,2013-05-03 05:03:00,
2013-05-03 00:05:00,50.2,45.1,30.18,NNW,340,2.0,8.9,83,0.00,,,0.00,0.0,meteobridge,2013-05-03 05:05:00,
2013-05-03 00:07:00,50.2,45.1,30.18,NNW,335,2.0,8.9,83,0.00,,,0.00,0.0,meteobridge,2013-05-03 05:07:00,
2013-05-03 00:08:00,50.2,45.1,30.18,NNE,31,2.0,6.9,83,0.00,,,0.00,0.0,meteobridge,2013-05-03 05:08:00,
2013-05-03 00:10:00,50.2,45.1,30.18,NNW,343,2.9,6.0,83,0.00,,,0.00,0.0,meteobridge,2013-05-03 05:10:00,
2013-05-03 00:12:00,50.2,45.1,30.18,North,0,0.0,4.9,83,0.00,,,0.00,0.0,meteobridge,2013-05-03 05:12:00,
2013-05-03 00:13:00,50.2,45.1,30.18,NNW,342,0.0,6.0,83,0.00,,,0.00,0.0,meteobridge,2013-05-03 05:13:00,
2013-05-03 00:14:00,50.2,45.1,30.18,North,350,2.0,6.0,83,0.00,,,0.00,0.0,meteobridge,2013-05-03 05:14:00,
2013-05-03 00:16:00,50.2,45.1,30.18,NW,315,2.0,6.9,83,0.00,,,0.00,0.0,meteobridge,2013-05-03 05:16:00,
2013-05-03 00:17:00,50.2,45.1,30.18,WNW,294,2.0,6.9,83,0.00,,,0.00,0.0,meteobridge,2013-05-03 05:17:00,
2013-05-03 00:18:00,50.2,45.1,30.18,WNW,296,2.9,4.9,83,0.00,,,0.00,0.0,meteobridge,2013-05-03 05:18:00,
2013-05-03 00:19:00,50.0,45.0,30.18,West,269,6.0,14.1,83,0.00,,,0.00,0.0,meteobridge,2013-05-03 05:19:00,
2013-05-03 00:20:00,50.2,45.1,30.18,NNW,339,4.9,14.1,83,0.00,,,0.00,0.0,meteobridge,2013-05-03 05:20:00,
2013-05-03 00:22:00,50.0,45.0,30.18,North,351,8.1,10.1,83,0.00,,,0.00,0.0,meteobridge,2013-05-03 05:22:00,
2013-05-03 00:23:00,50.0,45.0,30.18,NNW,342,4.9,10.1,83,0.00,,,0.00,0.0,meteobridge,2013-05-03 05:23:00,
2013-05-03 00:25:00,50.0,45.0,30.18,WNW,290,0.0,4.9,83,0.00,,,0.00,0.0,meteobridge,2013-05-03 05:25:00,
2013-05-03 00:28:00,50.0,45.0,30.18,WNW,291,6.9,6.9,83,0.00,,,0.00,0.0,meteobridge,2013-05-03 05:28:00,
2013-05-03 00:30:00,50.0,45.0,30.18,NNW,344,4.9,6.0,83,0.00,,,0.00,0.0,meteobridge,2013-05-03 05:30:00,
2013-05-03 00:33:00,49.8,44.8,30.18,NW,320,2.0,8.9,83,0.00,,,0.00,0.0,meteobridge,2013-05-03 05:33:00,
2013-05-03 00:34:00,49.8,44.8,30.18,West,281,8.1,8.9,83,0.00,,,0.00,0.0,meteobridge,2013-05-03 05:34:00,
2013-05-03 00:36:00,49.8,44.8,30.18,West,261,2.9,8.9,83,0.00,,,0.00,0.0,meteobridge,2013-05-03 05:36:00,
2013-05-03 00:38:00,49.8,44.8,30.18,NW,321,4.9,6.0,83,0.00,,,0.00,0.0,meteobridge,2013-05-03 05:38:00,
2013-05-03 00:39:00,49.8,44.8,30.18,West,279,2.0,4.9,83,0.00,,,0.00,0.0,meteobridge,2013-05-03 05:39:00,
2013-05-03 00:41:00,49.6,44.8,30.18,NNW,344,2.0,4.0,83,0.00,,,0.00,0.0,meteobridge,2013-05-03 05:41:00,
2013-05-03 00:42:00,49.6,44.8,30.18,West,277,2.9,4.0,83,0.00,,,0.00,0.0,meteobridge,2013-05-03 05:42:00,
2013-05-03 00:44:00,49.6,44.8,30.18,NNW,333,6.0,15.0,83,0.00,,,0.00,0.0,meteobridge,2013-05-03 05:44:00,
2013-05-03 00:46:00,49.6,44.8,30.18,NNW,330,0.9,4.0,83,0.00,,,0.00,0.0,meteobridge,2013-05-03 05:46:00,
2013-05-03 00:47:00,49.6,44.8,30.18,WNW,290,4.0,8.9,83,0.00,,,0.00,0.0,meteobridge,2013-05-03 05:47:00,
2013-05-03 00:49:00,49.6,44.8,30.18,West,269,6.0,8.9,83,0.00,,,0.00,0.0,meteobridge,2013-05-03 05:49:00,
2013-05-03 00:50:00,49.6,44.8,30.18,WNW,294,4.0,11.0,83,0.00,,,0.00,0.0,meteobridge,2013-05-03 05:50:00,
2013-05-03 00:52:00,49.6,44.8,30.18,WNW,285,0.9,4.0,83,0.00,,,0.00,0.0,meteobridge,2013-05-03 05:52:00,
2013-05-03 00:53:00,49.6,45.0,30.18,WNW,283,0.0,2.9,84,0.00,,,0.00,0.0,meteobridge,2013-05-03 05:53:00,
2013-05-03 00:55:00,49.5,44.6,30.18,NW,316,4.9,8.9,83,0.00,,,0.00,0.0,meteobridge,2013-05-03 05:55:00,
2013-05-03 00:56:00,49.5,44.6,30.18,NNW,342,2.9,8.9,83,0.00,,,0.00,0.0,meteobridge,2013-05-03 05:56:00,
2013-05-03 00:57:00,49.5,44.6,30.18,WNW,285,2.0,6.9,83,0.00,,,0.00,0.0,meteobridge,2013-05-03 05:57:00,
2013-05-03 00:59:00,49.5,44.8,30.18,WNW,293,2.9,4.9,84,0.00,,,0.00,0.0,meteobridge,2013-05-03 05:59:00,
2013-05-03 01:00:00,49.5,44.8,30.18,NNW,332,2.9,4.9,84,0.00,,,0.00,0.0,meteobridge,2013-05-03 06:00:00,
2013-05-03 01:02:00,49.5,44.8,30.17,WNW,299,0.9,4.9,84,0.00,,,0.00,0.0,meteobridge,2013-05-03 06:02:00,
2013-05-03 01:03:00,49.5,44.8,30.18,WSW,254,4.9,4.9,84,0.00,,,0.00,0.0,meteobridge,2013-05-03 06:03:00,
2013-05-03 01:04:00,49.3,44.6,30.17,North,355,2.0,4.9,84,0.00,,,0.00,0.0,meteobridge,2013-05-03 06:04:00,
2013-05-03 01:06:00,49.3,44.6,30.18,NNW,338,2.0,4.0,84,0.00,,,0.00,0.0,meteobridge,2013-05-03 06:06:00,
2013-05-03 01:07:00,49.3,44.6,30.17,NNW,340,2.0,4.9,84,0.00,,,0.00,0.0,meteobridge,2013-05-03 06:07:00,
2013-05-03 01:09:00,49.3,44.6,30.17,WSW,254,0.0,8.9,84,0.00,,,0.00,0.0,meteobridge,2013-05-03 06:09:00,
2013-05-03 01:10:00,49.3,44.6,30.17,NW,321,4.0,4.0,84,0.00,,,0.00,0.0,meteobridge,2013-05-03 06:10:00,
2013-05-03 01:12:00,49.3,44.6,30.18,North,0,8.1,13.0,84,0.00,,,0.00,0.0,meteobridge,2013-05-03 06:12:00,
2013-05-03 01:13:00,49.3,44.6,30.17,NW,311,2.9,13.0,84,0.00,,,0.00,0.0,meteobridge,2013-05-03 06:13:00,
2013-05-03 01:14:00,49.1,44.2,30.17,NW,311,2.0,6.9,83,0.00,,,0.00,0.0,meteobridge,2013-05-03 06:14:00,
2013-05-03 01:16:00,49.1,44.2,30.17,West,278,6.9,6.9,83,0.00,,,0.00,0.0,meteobridge,2013-05-03 06:16:00,
2013-05-03 01:17:00,48.9,44.1,30.17,WNW,286,8.1,8.1,83,0.00,,,0.00,0.0,meteobridge,2013-05-03 06:17:00,
2013-05-03 01:18:00,48.9,44.1,30.17,WNW,296,0.9,8.1,83,0.00,,,0.00,0.0,meteobridge,2013-05-03 06:18:00,
2013-05-03 01:19:00,48.9,44.1,30.17,West,273,4.0,10.1,83,0.00,,,0.00,0.0,meteobridge,2013-05-03 06:19:00,
2013-05-03 01:22:00,48.9,44.1,30.17,NNW,346,2.0,6.9,83,0.00,,,0.00,0.0,meteobridge,2013-05-03 06:22:00,
2013-05-03 01:23:00,48.9,44.1,30.17,NNW,346,2.0,6.9,83,0.00,,,0.00,0.0,meteobridge,2013-05-03 06:23:00,
2013-05-03 01:24:00,48.9,44.1,30.17,North,5,2.9,4.0,83,0.00,,,0.00,0.0,meteobridge,2013-05-03 06:24:00,
2013-05-03 01:26:00,48.9,44.2,30.17,NNW,336,2.0,11.0,84,0.00,,,0.00,0.0,meteobridge,2013-05-03 06:26:00,
2013-05-03 01:28:00,48.9,44.1,30.17,NNW,327,2.9,6.9,83,0.00,,,0.00,0.0,meteobridge,2013-05-03 06:28:00,
2013-05-03 01:31:00,48.9,44.2,30.17,WNW,283,4.0,4.9,84,0.00,,,0.00,0.0,meteobridge,2013-05-03 06:31:00,
2013-05-03 01:33:00,48.9,44.1,30.17,West,267,6.9,8.9,83,0.00,,,0.00,0.0,meteobridge,2013-05-03 06:33:00,
2013-05-03 01:37:00,48.7,44.1,30.16,NNW,336,2.0,8.1,84,0.00,,,0.00,0.0,meteobridge,2013-05-03 06:37:00,
2013-05-03 01:38:00,48.7,44.1,30.16,SSW,205,0.9,4.9,84,0.00,,,0.00,0.0,meteobridge,2013-05-03 06:38:00,
2013-05-03 01:39:00,48.7,44.1,30.16,NW,307,0.9,4.9,84,0.00,,,0.00,0.0,meteobridge,2013-05-03 06:39:00,
2013-05-03 01:42:00,48.6,43.9,30.16,NW,305,4.0,8.1,84,0.00,,,0.00,0.0,meteobridge,2013-05-03 06:42:00,
2013-05-03 01:44:00,48.6,43.9,30.16,NW,313,8.1,11.0,84,0.00,,,0.00,0.0,meteobridge,2013-05-03 06:44:00,
2013-05-03 01:45:00,48.6,43.9,30.16,NNW,343,2.0,11.0,84,0.00,,,0.00,0.0,meteobridge,2013-05-03 06:45:00,
2013-05-03 01:47:00,48.4,43.7,30.16,WNW,288,10.1,10.1,84,0.00,,,0.00,0.0,meteobridge,2013-05-03 06:47:00,
2013-05-03 01:49:00,48.4,43.7,30.16,West,273,8.9,8.9,84,0.00,,,0.00,0.0,meteobridge,2013-05-03 06:49:00,
2013-05-03 01:50:00,48.4,43.7,30.16,SW,217,4.0,8.9,84,0.00,,,0.00,0.0,meteobridge,2013-05-03 06:50:00,
2013-05-03 01:51:00,48.4,43.7,30.16,NW,313,0.9,8.9,84,0.00,,,0.00,0.0,meteobridge,2013-05-03 06:51:00,
2013-05-03 01:54:00,48.2,43.5,30.16,WNW,294,2.0,8.1,84,0.00,,,0.00,0.0,meteobridge,2013-05-03 06:54:00,
2013-05-03 01:55:00,48.0,43.3,30.16,West,275,2.0,8.1,84,0.00,,,0.00,0.0,meteobridge,2013-05-03 06:55:00,
2013-05-03 01:56:00,48.0,43.3,30.16,NW,313,2.9,4.9,84,0.00,,,0.00,0.0,meteobridge,2013-05-03 06:56:00,
2013-05-03 01:57:00,48.0,43.7,30.16,NNE,19,2.9,6.9,85,0.00,,,0.00,0.0,meteobridge,2013-05-03 06:57:00,
2013-05-03 01:59:00,48.0,43.3,30.16,WNW,286,4.0,6.0,84,0.00,,,0.00,0.0,meteobridge,2013-05-03 06:59:00,
2013-05-03 02:00:00,48.0,43.3,30.16,WNW,300,4.0,6.0,84,0.00,,,0.00,0.0,meteobridge,2013-05-03 07:00:00,
2013-05-03 02:01:00,48.0,43.3,30.16,West,260,2.9,17.0,84,0.00,,,0.00,0.0,meteobridge,2013-05-03 07:01:00,
2013-05-03 02:02:00,47.8,43.2,30.16,NW,311,2.0,13.0,84,0.00,,,0.00,0.0,meteobridge,2013-05-03 07:02:00,
2013-05-03 02:05:00,47.8,43.2,30.16,NW,317,6.9,11.0,84,0.00,,,0.00,0.0,meteobridge,2013-05-03 07:05:00,
2013-05-03 02:06:00,47.8,43.2,30.16,NNW,345,4.9,12.1,84,0.00,,,0.00,0.0,meteobridge,2013-05-03 07:06:00,
2013-05-03 02:08:00,47.7,43.0,30.16,West,281,8.9,12.1,84,0.00,,,0.00,0.0,meteobridge,2013-05-03 07:08:00,
2013-05-03 02:10:00,47.7,43.0,30.16,NNW,335,0.9,8.9,84,0.00,,,0.00,0.0,meteobridge,2013-05-03 07:10:00,
2013-05-03 02:11:00,47.7,43.0,30.16,NNW,331,0.9,2.9,84,0.00,,,0.00,0.0,meteobridge,2013-05-03 07:11:00,
2013-05-03 02:13:00,47.7,43.0,30.16,West,273,2.0,8.1,84,0.00,,,0.00,0.0,meteobridge,2013-05-03 07:13:00,
2013-05-03 02:14:00,47.7,43.0,30.16,North,5,2.9,11.0,84,0.00,,,0.00,0.0,meteobridge,2013-05-03 07:14:00,
2013-05-03 02:16:00,47.7,43.0,30.16,WNW,286,2.0,10.1,84,0.00,,,0.00,0.0,meteobridge,2013-05-03 07:16:00,
2013-05-03 02:18:00,47.7,43.0,30.16,NNW,343,4.9,8.1,84,0.00,,,0.00,0.0,meteobridge,2013-05-03 07:18:00,
2013-05-03 02:19:00,47.7,43.0,30.15,NNW,328,4.0,11.0,84,0.00,,,0.00,0.0,meteobridge,2013-05-03 07:19:00,
2013-05-03 02:21:00,47.7,43.0,30.16,NNW,348,8.9,8.9,84,0.00,,,0.00,0.0,meteobridge,2013-05-03 07:21:00,
2013-05-03 02:22:00,47.7,43.0,30.16,NNW,346,0.0,8.9,84,0.00,,,0.00,0.0,meteobridge,2013-05-03 07:22:00,
2013-05-03 02:23:00,47.7,43.0,30.16,NW,322,2.9,8.9,84,0.00,,,0.00,0.0,meteobridge,2013-05-03 07:23:00,
2013-05-03 02:26:00,47.7,43.0,30.16,WNW,287,8.9,8.9,84,0.00,,,0.00,0.0,meteobridge,2013-05-03 07:26:00,
2013-05-03 02:27:00,47.7,43.0,30.16,NW,317,0.0,8.9,84,0.00,,,0.00,0.0,meteobridge,2013-05-03 07:27:00,
2013-05-03 02:28:00,47.5,43.2,30.16,West,262,4.9,8.9,85,0.00,,,0.00,0.0,meteobridge,2013-05-03 07:28:00,
2013-05-03 02:29:00,47.5,43.2,30.16,WNW,294,4.0,8.9,85,0.00,,,0.00,0.0,meteobridge,2013-05-03 07:29:00,
2013-05-03 02:32:00,47.3,43.0,30.16,West,275,0.9,8.9,85,0.00,,,0.00,0.0,meteobridge,2013-05-03 07:32:00,
2013-05-03 02:33:00,47.1,43.2,30.16,NNW,346,4.0,8.1,86,0.00,,,0.00,0.0,meteobridge,2013-05-03 07:33:00,
2013-05-03 02:34:00,47.1,43.2,30.16,WNW,301,6.0,8.9,86,0.00,,,0.00,0.0,meteobridge,2013-05-03 07:34:00,
2013-05-03 02:38:00,46.9,43.3,30.16,WNW,292,4.0,16.1,87,0.00,,,0.00,0.0,meteobridge,2013-05-03 07:38:00,
2013-05-03 02:39:00,46.9,43.3,30.16,WNW,296,0.0,16.1,87,0.00,,,0.00,0.0,meteobridge,2013-05-03 07:39:00,
2013-05-03 02:40:00,46.9,43.3,30.15,NNE,19,4.0,12.1,87,0.00,,,0.00,0.0,meteobridge,2013-05-03 07:40:00,
2013-05-03 02:44:00,46.8,43.2,30.16,North,350,6.9,6.9,87,0.00,,,0.00,0.0,meteobridge,2013-05-03 07:44:00,
2013-05-03 02:45:00,46.8,43.2,30.16,SE,136,2.0,8.9,87,0.00,,,0.00,0.0,meteobridge,2013-05-03 07:45:00,
2013-05-03 02:46:00,46.8,43.2,30.16,WSW,252,4.0,8.9,87,0.00,,,0.00,0.0,meteobridge,2013-05-03 07:46:00,
2013-05-03 02:49:00,46.6,43.0,30.16,SW,229,6.0,8.1,87,0.00,,,0.00,0.0,meteobridge,2013-05-03 07:49:00,
2013-05-03 02:50:00,46.6,43.0,30.15,NW,313,2.0,8.9,87,0.00,,,0.00,0.0,meteobridge,2013-05-03 07:50:00,
2013-05-03 02:51:00,46.2,42.6,30.15,NNW,345,0.9,11.0,87,0.00,,,0.00,0.0,meteobridge,2013-05-03 07:51:00,
2013-05-03 02:52:00,46.2,42.6,30.15,West,266,2.9,11.0,87,0.00,,,0.00,0.0,meteobridge,2013-05-03 07:52:00,
2013-05-03 02:55:00,46.2,42.6,30.15,NW,314,10.1,10.1,87,0.00,,,0.00,0.0,meteobridge,2013-05-03 07:55:00,
2013-05-03 02:56:00,46.0,42.4,30.15,NNW,348,6.0,10.1,87,0.00,,,0.00,0.0,meteobridge,2013-05-03 07:56:00,
2013-05-03 02:57:00,46.0,42.4,30.15,West,279,4.9,10.1,87,0.00,,,0.00,0.0,meteobridge,2013-05-03 07:57:00,
2013-05-03 03:00:00,45.9,42.3,30.15,NNE,15,12.1,12.1,87,0.00,,,0.00,0.0,meteobridge,2013-05-03 08:00:00,
2013-05-03 03:01:00,45.9,42.3,30.15,NW,323,2.0,12.1,87,0.00,,,0.00,0.0,meteobridge,2013-05-03 08:01:00,
2013-05-03 03:02:00,45.9,42.3,30.15,North,10,6.9,12.1,87,0.00,,,0.00,0.0,meteobridge,2013-05-03 08:02:00,
2013-05-03 03:06:00,45.9,42.3,30.15,WNW,290,4.0,6.0,87,0.00,,,0.00,0.0,meteobridge,2013-05-03 08:06:00,
2013-05-03 03:07:00,45.7,42.1,30.16,West,271,2.9,4.9,87,0.00,,,0.00,0.0,meteobridge,2013-05-03 08:07:00,
2013-05-03 03:08:00,45.7,42.1,30.15,West,271,2.0,4.9,87,0.00,,,0.00,0.0,meteobridge,2013-05-03 08:08:00,
2013-05-03 03:11:00,45.7,42.1,30.15,NNW,332,6.0,6.0,87,0.00,,,0.00,0.0,meteobridge,2013-05-03 08:11:00,
2013-05-03 03:13:00,45.7,42.1,30.16,North,349,4.0,12.1,87,0.00,,,0.00,0.0,meteobridge,2013-05-03 08:13:00,
2013-05-03 03:16:00,45.7,42.1,30.15,West,279,6.0,6.9,87,0.00,,,0.00,0.0,meteobridge,2013-05-03 08:16:00,
2013-05-03 03:17:00,45.7,42.1,30.15,NNW,343,4.9,6.9,87,0.00,,,0.00,0.0,meteobridge,2013-05-03 08:17:00,
2013-05-03 03:18:00,45.7,42.1,30.15,WNW,302,2.0,6.0,87,0.00,,,0.00,0.0,meteobridge,2013-05-03 08:18:00,
2013-05-03 03:21:00,45.7,42.1,30.15,NW,311,4.0,4.9,87,0.00,,,0.00,0.0,meteobridge,2013-05-03 08:21:00,
2013-05-03 03:22:00,45.7,42.1,30.15,NNW,331,4.9,6.9,87,0.00,,,0.00,0.0,meteobridge,2013-05-03 08:22:00,
2013-05-03 03:24:00,45.7,42.1,30.15,North,5,2.9,6.0,87,0.00,,,0.00,0.0,meteobridge,2013-05-03 08:24:00,
2013-05-03 03:26:00,45.5,41.5,30.15,North,5,4.0,15.0,86,0.00,,,0.00,0.0,meteobridge,2013-05-03 08:26:00,
2013-05-03 03:27:00,45.5,41.5,30.15,NNW,343,0.0,4.9,86,0.00,,,0.00,0.0,meteobridge,2013-05-03 08:27:00,
2013-05-03 03:28:00,45.5,41.5,30.15,NW,321,4.0,4.9,86,0.00,,,0.00,0.0,meteobridge,2013-05-03 08:28:00,
2013-05-03 03:30:00,45.5,41.5,30.15,WNW,295,2.9,11.0,86,0.00,,,0.00,0.0,meteobridge,2013-05-03 08:30:00,
2013-05-03 03:31:00,45.5,41.5,30.15,West,275,8.9,12.1,86,0.00,,,0.00,0.0,meteobridge,2013-05-03 08:31:00,
2013-05-03 03:32:00,45.5,41.5,30.15,North,0,2.0,11.0,86,0.00,,,0.00,0.0,meteobridge,2013-05-03 08:32:00,
2013-05-03 03:33:00,45.5,41.5,30.15,NNW,336,6.0,11.0,86,0.00,,,0.00,0.0,meteobridge,2013-05-03 08:33:00,
2013-05-03 03:35:00,45.5,41.5,30.14,WNW,302,2.9,8.1,86,0.00,,,0.00,0.0,meteobridge,2013-05-03 08:35:00,
2013-05-03 03:36:00,45.5,41.5,30.14,WNW,299,2.0,8.1,86,0.00,,,0.00,0.0,meteobridge,2013-05-03 08:36:00,
2013-05-03 03:37:00,45.5,41.5,30.14,NW,316,2.0,8.1,86,0.00,,,0.00,0.0,meteobridge,2013-05-03 08:37:00,
2013-05-03 03:38:00,45.5,41.5,30.14,WNW,286,2.9,4.9,86,0.00,,,0.00,0.0,meteobridge,2013-05-03 08:38:00,
2013-05-03 03:40:00,45.7,41.7,30.14,NW,304,2.0,4.0,86,0.00,,,0.00,0.0,meteobridge,2013-05-03 08:40:00,
2013-05-03 03:41:00,45.7,41.7,30.14,WNW,297,0.9,4.9,86,0.00,,,0.00,0.0,meteobridge,2013-05-03 08:41:00,
2013-05-03 03:42:00,45.7,41.7,30.14,NNW,334,2.9,6.0,86,0.00,,,0.00,0.0,meteobridge,2013-05-03 08:42:00,
2013-05-03 03:44:00,45.7,41.4,30.15,East,90,2.0,10.1,85,0.00,,,0.00,0.0,meteobridge,2013-05-03 08:44:00,
2013-05-03 03:45:00,45.5,41.2,30.14,West,263,4.0,6.9,85,0.00,,,0.00,0.0,meteobridge,2013-05-03 08:45:00,
2013-05-03 03:46:00,45.7,41.4,30.15,West,263,2.9,6.9,85,0.00,,,0.00,0.0,meteobridge,2013-05-03 08:46:00,
2013-05-03 03:47:00,45.5,41.2,30.14,NNW,333,0.9,4.9,85,0.00,,,0.00,0.0,meteobridge,2013-05-03 08:47:00,
2013-05-03 03:48:00,45.5,41.2,30.15,NW,314,4.0,4.0,85,0.00,,,0.00,0.0,meteobridge,2013-05-03 08:48:00,
2013-05-03 03:50:00,45.5,41.2,30.14,North,5,2.0,13.0,85,0.00,,,0.00,0.0,meteobridge,2013-05-03 08:50:00,
2013-05-03 03:51:00,45.5,41.2,30.15,West,279,0.9,13.0,85,0.00,,,0.00,0.0,meteobridge,2013-05-03 08:51:00,
2013-05-03 03:52:00,45.5,41.2,30.15,NW,319,2.0,4.9,85,0.00,,,0.00,0.0,meteobridge,2013-05-03 08:52:00,
2013-05-03 03:56:00,45.5,41.2,30.15,NW,306,2.0,8.1,85,0.00,,,0.00,0.0,meteobridge,2013-05-03 08:56:00,
2013-05-03 03:57:00,45.5,42.4,30.15,WNW,303,2.9,8.1,89,0.00,,,0.00,0.0,meteobridge,2013-05-03 08:57:00,
2013-05-03 03:58:00,45.5,42.4,30.15,NNW,336,2.9,10.1,89,0.00,,,0.00,0.0,meteobridge,2013-05-03 08:58:00,
2013-05-03 04:01:00,45.3,41.0,30.15,WNW,289,4.9,6.0,85,0.00,,,0.00,0.0,meteobridge,2013-05-03 09:01:00,
2013-05-03 04:02:00,45.5,41.2,30.16,SSW,198,0.9,6.0,85,0.00,,,0.00,0.0,meteobridge,2013-05-03 09:02:00,
2013-05-03 04:03:00,45.3,41.0,30.15,NW,304,2.0,6.0,85,0.00,,,0.00,0.0,meteobridge,2013-05-03 09:03:00,
2013-05-03 04:04:00,45.3,41.0,30.15,NNE,33,0.9,4.9,85,0.00,,,0.00,0.0,meteobridge,2013-05-03 09:04:00,
2013-05-03 04:06:00,45.3,41.4,30.16,WSW,258,2.0,8.1,86,0.00,,,0.00,0.0,meteobridge,2013-05-03 09:06:00,
2013-05-03 04:07:00,45.3,41.4,30.16,WNW,300,6.0,8.9,86,0.00,,,0.00,0.0,meteobridge,2013-05-03 09:07:00,
2013-05-03 04:08:00,45.3,41.4,30.16,NW,309,2.9,6.9,86,0.00,,,0.00,0.0,meteobridge,2013-05-03 09:08:00,
2013-05-03 04:10:00,45.1,41.2,30.16,West,265,4.0,6.9,86,0.00,,,0.00,0.0,meteobridge,2013-05-03 09:10:00,
2013-05-03 04:11:00,45.1,41.2,30.16,NW,316,2.0,6.9,86,0.00,,,0.00,0.0,meteobridge,2013-05-03 09:11:00,
2013-05-03 04:12:00,45.1,41.2,30.16,NW,326,4.0,6.9,86,0.00,,,0.00,0.0,meteobridge,2013-05-03 09:12:00,
2013-05-03 04:13:00,45.1,41.2,30.16,WNW,294,2.0,6.9,86,0.00,,,0.00,0.0,meteobridge,2013-05-03 09:13:00,
2013-05-03 04:14:00,45.1,41.5,30.16,WNW,288,0.9,6.9,87,0.00,,,0.00,0.0,meteobridge,2013-05-03 09:14:00,
2013-05-03 04:15:00,45.1,41.5,30.16,NW,321,0.9,4.9,87,0.00,,,0.00,0.0,meteobridge,2013-05-03 09:15:00,
2013-05-03 04:16:00,45.0,41.4,30.16,NW,322,0.9,4.0,87,0.00,,,0.00,0.0,meteobridge,2013-05-03 09:16:00,
2013-05-03 04:18:00,45.0,41.4,30.16,NNE,12,0.0,6.0,87,0.00,,,0.00,0.0,meteobridge,2013-05-03 09:18:00,
2013-05-03 04:19:00,45.0,41.4,30.16,SW,236,0.9,6.0,87,0.00,,,0.00,0.0,meteobridge,2013-05-03 09:19:00,
2013-05-03 04:20:00,45.0,41.4,30.15,NNW,347,6.9,6.9,87,0.00,,,0.00,0.0,meteobridge,2013-05-03 09:20:00,
2013-05-03 04:21:00,45.0,41.4,30.15,WNW,288,4.0,8.9,87,0.00,,,0.00,0.0,meteobridge,2013-05-03 09:21:00,
2013-05-03 04:23:00,45.0,41.4,30.16,WSW,252,0.9,6.9,87,0.00,,,0.00,0.0,meteobridge,2013-05-03 09:23:00,
2013-05-03 04:24:00,45.0,41.4,30.16,West,275,4.0,6.0,87,0.00,,,0.00,0.0,meteobridge,2013-05-03 09:24:00,
2013-05-03 04:27:00,44.8,41.2,30.15,West,263,6.9,6.9,87,0.00,,,0.00,0.0,meteobridge,2013-05-03 09:27:00,
2013-05-03 04:29:00,44.8,41.2,30.15,WNW,300,4.0,10.1,87,0.00,,,0.00,0.0,meteobridge,2013-05-03 09:29:00,
2013-05-03 04:30:00,44.8,41.2,30.15,NNW,337,2.0,10.1,87,0.00,,,0.00,0.0,meteobridge,2013-05-03 09:30:00,
2013-05-03 04:32:00,45.0,41.4,30.15,NW,325,2.9,6.0,87,0.00,,,0.00,0.0,meteobridge,2013-05-03 09:32:00,
2013-05-03 04:34:00,45.0,41.4,30.15,NNW,338,4.0,4.9,87,0.00,,,0.00,0.0,meteobridge,2013-05-03 09:34:00,
2013-05-03 04:35:00,45.0,41.4,30.15,NNW,328,2.9,8.1,87,0.00,,,0.00,0.0,meteobridge,2013-05-03 09:35:00,
2013-05-03 04:38:00,44.8,41.2,30.15,West,274,2.0,4.9,87,0.00,,,0.00,0.0,meteobridge,2013-05-03 09:38:00,
2013-05-03 04:39:00,44.8,41.4,30.15,WNW,298,0.9,8.1,88,0.00,,,0.00,0.0,meteobridge,2013-05-03 09:39:00,
2013-05-03 04:40:00,45.0,41.4,30.15,West,277,8.1,8.1,87,0.00,,,0.00,0.0,meteobridge,2013-05-03 09:40:00,
2013-05-03 04:42:00,44.8,41.2,30.15,NW,319,2.9,8.1,87,0.00,,,0.00,0.0,meteobridge,2013-05-03 09:42:00,
2013-05-03 04:43:00,45.0,41.4,30.15,NW,326,4.0,6.9,87,0.00,,,0.00,0.0,meteobridge,2013-05-03 09:43:00,
2013-05-03 04:44:00,44.8,41.2,30.15,NW,321,2.9,8.1,87,0.00,,,0.00,0.0,meteobridge,2013-05-03 09:44:00,
2013-05-03 04:46:00,45.0,41.4,30.15,North,351,2.0,2.9,87,0.00,,,0.00,0.0,meteobridge,2013-05-03 09:46:00,
2013-05-03 04:47:00,45.0,41.4,30.15,NNW,343,2.0,2.9,87,0.00,,,0.00,0.0,meteobridge,2013-05-03 09:47:00,
2013-05-03 04:48:00,45.0,41.4,30.15,NW,308,0.9,6.9,87,0.00,,,0.00,0.0,meteobridge,2013-05-03 09:48:00,
2013-05-03 04:49:00,45.0,41.4,30.15,NW,308,2.9,6.9,87,0.00,,,0.00,0.0,meteobridge,2013-05-03 09:49:00,
2013-05-03 04:51:00,45.0,41.4,30.15,NNW,346,0.9,6.0,87,0.00,,,0.00,0.0,meteobridge,2013-05-03 09:51:00,
2013-05-03 04:53:00,45.0,41.4,30.15,WNW,286,2.9,4.9,87,0.00,,,0.00,0.0,meteobridge,2013-05-03 09:53:00,
2013-05-03 04:54:00,45.0,41.4,30.15,NNW,345,4.0,8.9,87,0.00,,,0.00,0.0,meteobridge,2013-05-03 09:54:00,
2013-05-03 04:56:00,45.0,41.4,30.15,WSW,250,0.9,8.9,87,0.00,,,0.00,0.0,meteobridge,2013-05-03 09:56:00,
2013-05-03 04:59:00,45.0,41.4,30.15,NNE,13,4.0,13.0,87,0.00,,,0.00,0.0,meteobridge,2013-05-03 09:59:00,
2013-05-03 05:00:00,45.0,41.4,30.15,West,281,11.0,11.0,87,0.00,,,0.00,0.0,meteobridge,2013-05-03 10:00:00,
2013-05-03 05:02:00,45.0,41.0,30.15,North,350,4.0,14.1,86,0.00,,,0.00,0.0,meteobridge,2013-05-03 10:02:00,
2013-05-03 05:04:00,45.0,41.0,30.15,NNW,330,0.0,6.0,86,0.00,,,0.00,0.0,meteobridge,2013-05-03 10:04:00,
2013-05-03 05:05:00,45.0,41.0,30.15,NNW,330,0.9,6.0,86,0.00,,,0.00,0.0,meteobridge,2013-05-03 10:05:00,
2013-05-03 05:06:00,45.0,41.0,30.15,WNW,297,6.9,6.9,86,0.00,,,0.00,0.0,meteobridge,2013-05-03 10:06:00,
2013-05-03 05:07:00,45.0,41.0,30.15,West,281,2.0,11.0,86,0.00,,,0.00,0.0,meteobridge,2013-05-03 10:07:00,
2013-05-03 05:10:00,45.0,40.6,30.15,NNW,342,4.0,8.1,85,0.00,,,0.00,0.0,meteobridge,2013-05-03 10:10:00,
2013-05-03 05:11:00,45.1,40.8,30.15,WNW,289,2.0,8.9,85,0.00,,,0.00,0.0,meteobridge,2013-05-03 10:11:00,
2013-05-03 05:12:00,45.1,40.8,30.15,WNW,302,2.0,8.9,85,0.00,,,0.00,0.0,meteobridge,2013-05-03 10:12:00,
2013-05-03 05:13:00,45.1,40.8,30.15,NNW,329,2.9,6.0,85,0.00,,,0.00,0.0,meteobridge,2013-05-03 10:13:00,
2013-05-03 05:15:00,45.1,40.8,30.15,NW,325,0.0,6.0,85,0.00,,,0.00,0.0,meteobridge,2013-05-03 10:15:00,
2013-05-03 05:16:00,45.1,40.8,30.15,WNW,284,2.9,6.9,85,0.00,,,0.00,0.0,meteobridge,2013-05-03 10:16:00,
2013-05-03 05:19:00,45.1,40.8,30.15,NNW,338,6.0,8.1,85,0.00,,,0.00,0.0,meteobridge,2013-05-03 10:19:00,
2013-05-03 05:20:00,45.1,40.6,30.15,West,268,8.1,8.9,84,0.00,,,0.00,0.0,meteobridge,2013-05-03 10:20:00,
2013-05-03 05:21:00,45.1,40.6,30.15,West,280,4.0,10.1,84,0.00,,,0.00,0.0,meteobridge,2013-05-03 10:21:00,
2013-05-03 05:23:00,45.1,40.6,30.15,WNW,286,2.0,11.0,84,0.00,,,0.00,0.0,meteobridge,2013-05-03 10:23:00,
2013-05-03 05:24:00,45.1,40.6,30.15,NW,326,2.9,6.9,84,0.00,,,0.00,0.0,meteobridge,2013-05-03 10:24:00,
2013-05-03 05:25:00,45.1,40.6,30.15,WSW,253,8.1,12.1,84,0.00,,,0.00,0.0,meteobridge,2013-05-03 10:25:00,
2013-05-03 05:26:00,45.1,40.6,30.15,NNW,339,8.9,11.0,84,0.00,,,0.00,0.0,meteobridge,2013-05-03 10:26:00,
2013-05-03 05:29:00,45.1,40.6,30.15,NNW,338,2.0,8.1,84,0.00,,,0.00,0.0,meteobridge,2013-05-03 10:29:00,
2013-05-03 05:30:00,45.1,40.6,30.15,NNW,338,0.9,8.1,84,0.00,,,0.00,0.0,meteobridge,2013-05-03 10:30:00,
2013-05-03 05:31:00,45.1,40.3,30.15,NW,306,2.0,6.0,83,0.00,,,0.00,0.0,meteobridge,2013-05-03 10:31:00,
2013-05-03 05:32:00,45.3,40.5,30.15,West,281,0.9,6.0,83,0.00,,,0.00,0.0,meteobridge,2013-05-03 10:32:00,
2013-05-03 05:34:00,45.3,40.5,30.15,West,279,0.9,14.1,83,0.00,,,0.00,0.0,meteobridge,2013-05-03 10:34:00,
2013-05-03 05:35:00,45.3,40.5,30.15,West,265,6.0,14.1,83,0.00,,,0.00,0.0,meteobridge,2013-05-03 10:35:00,
2013-05-03 05:36:00,45.1,40.3,30.15,NNW,342,2.0,6.9,83,0.00,,,0.00,0.0,meteobridge,2013-05-03 10:36:00,
2013-05-03 05:37:00,45.1,40.3,30.15,North,5,4.9,6.9,83,0.00,,,0.00,0.0,meteobridge,2013-05-03 10:37:00,
2013-05-03 05:39:00,45.3,40.5,30.15,NW,304,4.0,8.1,83,0.00,,,0.00,0.0,meteobridge,2013-05-03 10:39:00,
2013-05-03 05:41:00,45.3,40.5,30.15,WNW,289,6.0,8.9,83,0.00,,,0.00,0.0,meteobridge,2013-05-03 10:41:00,
2013-05-03 05:42:00,45.3,40.5,30.15,NW,323,11.0,11.0,83,0.00,,,0.00,0.0,meteobridge,2013-05-03 10:42:00,
2013-05-03 05:43:00,45.3,40.5,30.15,North,5,4.0,11.0,83,0.00,,,0.00,0.0,meteobridge,2013-05-03 10:43:00,
2013-05-03 05:45:00,45.3,40.5,30.15,NW,325,4.0,4.0,83,0.00,,,0.00,0.0,meteobridge,2013-05-03 10:45:00,
2013-05-03 05:46:00,45.3,40.5,30.15,NW,307,2.0,6.0,83,0.00,,,0.00,0.0,meteobridge,2013-05-03 10:46:00,
2013-05-03 05:48:00,45.3,40.5,30.15,WNW,298,0.0,6.9,83,0.00,,,0.00,0.0,meteobridge,2013-05-03 10:48:00,
2013-05-03 05:51:00,45.3,40.5,30.15,WNW,286,2.9,6.0,83,0.00,,,0.00,0.0,meteobridge,2013-05-03 10:51:00,
2013-05-03 05:52:00,45.3,40.5,30.15,WNW,296,4.0,4.9,83,0.00,,,0.00,0.0,meteobridge,2013-05-03 10:52:00,
2013-05-03 05:53:00,45.3,40.5,30.16,WNW,284,4.0,6.0,83,0.00,,,0.00,0.0,meteobridge,2013-05-03 10:53:00,
2013-05-03 05:57:00,45.3,40.5,30.15,NW,324,6.9,10.1,83,0.00,,,0.00,0.0,meteobridge,2013-05-03 10:57:00,
2013-05-03 05:58:00,45.3,40.5,30.15,West,269,6.9,10.1,83,0.00,,,0.00,0.0,meteobridge,2013-05-03 10:58:00,
2013-05-03 05:59:00,45.3,40.5,30.15,West,269,4.9,10.1,83,0.00,,,0.00,0.0,meteobridge,2013-05-03 10:59:00,
2013-05-03 06:00:00,45.3,40.5,30.15,West,274,4.0,8.9,83,0.00,,,0.00,0.0,meteobridge,2013-05-03 11:00:00,
2013-05-03 06:02:00,45.3,40.5,30.15,North,355,2.0,4.9,83,0.00,,,0.00,0.0,meteobridge,2013-05-03 11:02:00,
2013-05-03 06:03:00,45.1,40.3,30.15,West,273,4.0,6.0,83,0.00,,,0.00,0.0,meteobridge,2013-05-03 11:03:00,
2013-05-03 06:05:00,45.1,40.3,30.15,WNW,298,4.0,8.9,83,0.00,,,0.00,0.0,meteobridge,2013-05-03 11:05:00,
2013-05-03 06:08:00,45.1,40.3,30.15,West,271,4.9,6.9,83,0.00,,,0.00,0.0,meteobridge,2013-05-03 11:08:00,
2013-05-03 06:09:00,45.1,40.3,30.16,NW,324,2.0,6.9,83,0.00,,,0.00,0.0,meteobridge,2013-05-03 11:09:00,
2013-05-03 06:10:00,45.1,40.3,30.16,NNW,333,2.9,8.9,83,0.00,,,0.00,0.0,meteobridge,2013-05-03 11:10:00,
2013-05-03 06:14:00,45.1,40.3,30.16,WNW,290,4.0,10.1,83,0.00,,,0.00,0.0,meteobridge,2013-05-03 11:14:00,
2013-05-03 06:16:00,45.1,40.3,30.16,WNW,287,2.9,6.9,83,0.00,,,0.00,0.0,meteobridge,2013-05-03 11:16:00,
2013-05-03 06:19:00,45.1,40.3,30.16,West,278,2.0,8.1,83,0.00,,,0.00,0.0,meteobridge,2013-05-03 11:19:00,
2013-05-03 06:20:00,45.1,39.9,30.16,NW,308,8.1,8.1,82,0.00,,,0.00,0.0,meteobridge,2013-05-03 11:20:00,
2013-05-03 06:21:00,45.1,39.9,30.16,NNW,336,8.1,10.1,82,0.00,,,0.00,0.0,meteobridge,2013-05-03 11:21:00,
2013-05-03 06:22:00,45.1,39.9,30.16,NNW,341,2.9,10.1,82,0.00,,,0.00,0.0,meteobridge,2013-05-03 11:22:00,
2013-05-03 06:24:00,45.1,39.9,30.15,North,5,2.9,6.0,82,0.00,,,0.00,0.0,meteobridge,2013-05-03 11:24:00,
2013-05-03 06:25:00,45.1,39.9,30.15,North,350,2.9,8.1,82,0.00,,,0.00,0.0,meteobridge,2013-05-03 11:25:00,
2013-05-03 06:27:00,45.1,39.9,30.15,NNW,336,2.9,8.9,82,0.00,,,0.00,0.0,meteobridge,2013-05-03 11:27:00,
2013-05-03 06:28:00,45.1,39.9,30.15,NNW,332,2.9,8.9,82,0.00,,,0.00,0.0,meteobridge,2013-05-03 11:28:00,
2013-05-03 06:29:00,45.1,39.9,30.16,NW,312,6.9,10.1,82,0.00,,,0.00,0.0,meteobridge,2013-05-03 11:29:00,
2013-05-03 06:31:00,45.1,39.9,30.16,NNW,348,2.9,10.1,82,0.00,,,0.00,0.0,meteobridge,2013-05-03 11:31:00,
2013-05-03 06:32:00,45.1,39.9,30.16,NNE,23,8.9,8.9,82,0.00,,,0.00,0.0,meteobridge,2013-05-03 11:32:00,
2013-05-03 06:33:00,45.1,39.9,30.16,NW,323,6.9,11.0,82,0.00,,,0.00,0.0,meteobridge,2013-05-03 11:33:00,
2013-05-03 06:35:00,45.1,39.7,30.16,NNE,15,4.0,8.1,81,0.00,,,0.00,0.0,meteobridge,2013-05-03 11:35:00,
2013-05-03 06:37:00,45.1,39.7,30.16,North,355,11.0,11.0,81,0.00,,,0.00,0.0,meteobridge,2013-05-03 11:37:00,
2013-05-03 06:38:00,45.1,39.7,30.16,NNE,22,4.0,12.1,81,0.00,,,0.00,0.0,meteobridge,2013-05-03 11:38:00,
2013-05-03 06:39:00,45.1,39.7,30.16,NNW,343,8.1,12.1,81,0.00,,,0.00,5.0,meteobridge,2013-05-03 11:39:00,
2013-05-03 06:41:00,45.1,39.7,30.16,NE,34,2.0,6.0,81,0.00,,,0.00,5.0,meteobridge,2013-05-03 11:41:00,
2013-05-03 06:42:00,45.1,39.7,30.16,North,0,0.9,4.9,81,0.00,,,0.00,7.0,meteobridge,2013-05-03 11:42:00,
2013-05-03 06:43:00,45.1,39.7,30.16,WNW,292,0.0,4.9,81,0.00,,,0.00,7.0,meteobridge,2013-05-03 11:43:00,
2013-05-03 06:44:00,45.1,39.7,30.16,North,351,6.0,8.1,81,0.00,,,0.00,9.0,meteobridge,2013-05-03 11:44:00,
2013-05-03 06:45:00,45.1,39.7,30.16,NW,304,2.9,8.1,81,0.00,,,0.00,11.0,meteobridge,2013-05-03 11:45:00,
2013-05-03 06:47:00,45.1,39.7,30.16,NNW,336,4.0,8.1,81,0.00,,,0.00,11.0,meteobridge,2013-05-03 11:47:00,
2013-05-03 06:50:00,45.0,39.6,30.16,NNW,332,4.9,4.9,81,0.00,,,0.00,11.0,meteobridge,2013-05-03 11:50:00,
2013-05-03 06:51:00,45.1,39.7,30.16,West,269,2.9,8.1,81,0.00,,,0.00,11.0,meteobridge,2013-05-03 11:51:00,
2013-05-03 06:52:00,45.0,39.6,30.16,West,279,4.0,8.1,81,0.00,,,0.00,11.0,meteobridge,2013-05-03 11:52:00,
2013-05-03 06:53:00,45.0,39.6,30.16,NNW,337,4.0,10.1,81,0.00,,,0.00,12.0,meteobridge,2013-05-03 11:53:00,
2013-05-03 06:55:00,45.0,39.6,30.16,WNW,284,4.9,8.9,81,0.00,,,0.00,12.0,meteobridge,2013-05-03 11:55:00,
2013-05-03 06:56:00,45.0,39.6,30.16,NNW,328,6.0,8.9,81,0.00,,,0.00,12.0,meteobridge,2013-05-03 11:56:00,
2013-05-03 06:58:00,45.0,39.2,30.17,WNW,283,4.0,10.1,80,0.00,,,0.00,14.0,meteobridge,2013-05-03 11:58:00,
2013-05-03 06:59:00,45.0,39.2,30.17,NNW,329,4.9,10.1,80,0.00,,,0.00,14.0,meteobridge,2013-05-03 11:59:00,
2013-05-03 07:00:00,45.0,39.6,30.17,NNE,13,0.9,6.9,81,0.00,,,0.00,16.0,meteobridge,2013-05-03 12:00:00,
2013-05-03 07:02:00,45.0,39.6,30.17,North,5,2.0,4.9,81,0.00,,,0.00,16.0,meteobridge,2013-05-03 12:02:00,
2013-05-03 07:03:00,45.0,39.6,30.17,North,5,2.0,4.9,81,0.00,,,0.00,18.0,meteobridge,2013-05-03 12:03:00,
2013-05-03 07:04:00,45.0,39.6,30.17,NW,311,0.0,10.1,81,0.00,,,0.00,19.0,meteobridge,2013-05-03 12:04:00,
2013-05-03 07:05:00,45.0,39.6,30.17,NNW,342,2.0,4.0,81,0.00,,,0.00,21.0,meteobridge,2013-05-03 12:05:00,
2013-05-03 07:07:00,45.1,39.7,30.17,WNW,288,6.0,6.0,81,0.00,,,0.00,23.0,meteobridge,2013-05-03 12:07:00,
2013-05-03 07:08:00,45.0,39.6,30.17,West,276,0.0,6.0,81,0.00,,,0.00,23.0,meteobridge,2013-05-03 12:08:00,
2013-05-03 07:09:00,45.0,39.6,30.17,NNW,329,0.9,4.9,81,0.00,,,0.00,23.0,meteobridge,2013-05-03 12:09:00,
2013-05-03 07:10:00,45.0,39.6,30.17,WNW,286,4.0,6.0,81,0.00,,,0.00,23.0,meteobridge,2013-05-03 12:10:00,
2013-05-03 07:11:00,45.0,39.6,30.17,NNW,333,4.0,8.1,81,0.00,,,0.00,23.0,meteobridge,2013-05-03 12:11:00,
2013-05-03 07:13:00,45.0,39.6,30.17,NNW,344,0.9,8.1,81,0.00,,,0.00,23.0,meteobridge,2013-05-03 12:13:00,
2013-05-03 07:14:00,45.0,39.6,30.17,NNW,338,2.0,8.9,81,0.00,,,0.00,23.0,meteobridge,2013-05-03 12:14:00,
2013-05-03 07:15:00,45.0,39.6,30.17,NNW,346,0.0,4.0,81,0.00,,,0.00,23.0,meteobridge,2013-05-03 12:15:00,
2013-05-03 07:16:00,45.1,39.7,30.18,NNW,346,0.9,4.0,81,0.00,,,0.00,23.0,meteobridge,2013-05-03 12:16:00,
2013-05-03 07:20:00,45.1,39.7,30.18,NNW,327,2.0,10.1,81,0.00,,,0.00,23.0,meteobridge,2013-05-03 12:20:00,
2013-05-03 07:21:00,45.1,39.7,30.18,NW,306,4.9,6.0,81,0.00,,,0.00,25.0,meteobridge,2013-05-03 12:21:00,
2013-05-03 07:22:00,45.1,39.7,30.18,NNW,331,2.0,8.9,81,0.00,,,0.00,25.0,meteobridge,2013-05-03 12:22:00,
2013-05-03 07:25:00,45.1,39.7,30.18,NW,319,2.0,10.1,81,0.00,,,0.00,23.0,meteobridge,2013-05-03 12:25:00,
2013-05-03 07:26:00,45.0,39.2,30.18,West,279,4.0,11.0,80,0.00,,,0.00,23.0,meteobridge,2013-05-03 12:26:00,
2013-05-03 07:27:00,45.0,39.2,30.18,NNE,18,2.9,11.0,80,0.00,,,0.00,25.0,meteobridge,2013-05-03 12:27:00,
2013-05-03 07:28:00,45.0,39.2,30.18,WNW,288,4.9,6.0,80,0.00,,,0.00,26.0,meteobridge,2013-05-03 12:28:00,
2013-05-03 07:31:00,45.0,39.2,30.18,WNW,292,2.9,4.9,80,0.00,,,0.00,33.0,meteobridge,2013-05-03 12:31:00,
2013-05-03 07:32:00,45.0,39.2,30.18,NNW,346,2.0,6.9,80,0.00,,,0.00,49.0,meteobridge,2013-05-03 12:32:00,
2013-05-03 07:33:00,45.0,39.2,30.18,NW,311,0.9,4.9,80,0.00,,,0.00,60.0,meteobridge,2013-05-03 12:33:00,
2013-05-03 07:36:00,45.1,39.7,30.18,NNW,333,4.0,4.9,81,0.00,,,0.00,65.0,meteobridge,2013-05-03 12:36:00,
2013-05-03 07:37:00,45.1,39.7,30.18,NNW,332,0.9,4.9,81,0.00,,,0.00,83.0,meteobridge,2013-05-03 12:37:00,
2013-05-03 07:38:00,45.1,39.7,30.18,West,278,6.0,6.0,81,0.00,,,0.00,83.0,meteobridge,2013-05-03 12:38:00,
2013-05-03 07:39:00,45.1,39.7,30.18,North,350,4.0,6.9,81,0.00,,,0.00,70.0,meteobridge,2013-05-03 12:39:00,
2013-05-03 07:41:00,45.1,39.7,30.18,NW,313,0.9,6.0,81,0.00,,,0.00,67.0,meteobridge,2013-05-03 12:41:00,
2013-05-03 07:43:00,45.1,39.7,30.18,WNW,290,8.1,10.1,81,0.00,,,0.00,72.0,meteobridge,2013-05-03 12:43:00,
2013-05-03 07:44:00,45.1,39.4,30.18,NNE,15,8.1,10.1,80,0.00,,,0.00,72.0,meteobridge,2013-05-03 12:44:00,
2013-05-03 07:45:00,45.1,39.4,30.18,NW,317,4.9,10.1,80,0.00,,,0.00,74.0,meteobridge,2013-05-03 12:45:00,
2013-05-03 07:46:00,45.1,39.4,30.18,NW,317,2.9,10.1,80,0.00,,,0.00,76.0,meteobridge,2013-05-03 12:46:00,
2013-05-03 07:49:00,45.3,39.6,30.18,NW,322,2.0,6.0,80,0.00,,,0.00,72.0,meteobridge,2013-05-03 12:49:00,
2013-05-03 07:50:00,45.3,39.6,30.18,NNW,348,2.9,4.9,80,0.00,,,0.00,76.0,meteobridge,2013-05-03 12:50:00,
2013-05-03 07:51:00,45.3,39.6,30.19,NNW,331,2.9,6.0,80,0.00,,,0.00,79.0,meteobridge,2013-05-03 12:51:00,
2013-05-03 07:52:00,45.3,39.6,30.19,NW,321,0.9,6.0,80,0.00,,,0.00,83.0,meteobridge,2013-05-03 12:52:00,
2013-05-03 07:55:00,45.5,39.7,30.19,NNW,335,0.9,2.9,80,0.00,,,0.00,74.0,meteobridge,2013-05-03 12:55:00,
2013-05-03 07:56:00,45.5,39.7,30.19,NW,311,0.9,6.9,80,0.00,,,0.00,76.0,meteobridge,2013-05-03 12:56:00,
2013-05-03 07:57:00,45.5,39.7,30.19,NNW,345,0.9,6.9,80,0.00,,,0.00,83.0,meteobridge,2013-05-03 12:57:00,
2013-05-03 07:58:00,45.5,39.7,30.19,North,355,0.0,4.0,80,0.00,,,0.00,95.0,meteobridge,2013-05-03 12:58:00,
2013-05-03 08:01:00,45.7,39.9,30.19,West,281,11.0,11.0,80,0.00,,,0.00,107.0,meteobridge,2013-05-03 13:01:00,
2013-05-03 08:02:00,45.9,40.1,30.19,NNW,342,2.0,11.0,80,0.00,,,0.00,111.0,meteobridge,2013-05-03 13:02:00,
2013-05-03 08:03:00,45.9,40.1,30.19,NW,305,6.0,13.0,80,0.00,,,0.00,113.0,meteobridge,2013-05-03 13:03:00,
2013-05-03 08:06:00,45.9,39.7,30.19,WNW,300,0.9,8.9,79,0.00,,,0.00,114.0,meteobridge,2013-05-03 13:06:00,
2013-05-03 08:07:00,45.7,39.6,30.19,NW,313,2.0,8.1,79,0.00,,,0.00,132.0,meteobridge,2013-05-03 13:07:00,
2013-05-03 08:08:00,45.9,39.7,30.19,NW,316,2.9,8.1,79,0.00,,,0.00,151.0,meteobridge,2013-05-03 13:08:00,
2013-05-03 08:09:00,45.9,39.7,30.19,NW,319,2.9,4.9,79,0.00,,,0.00,155.0,meteobridge,2013-05-03 13:09:00,
2013-05-03 08:11:00,46.0,39.9,30.19,WNW,297,4.9,4.9,79,0.00,,,0.00,156.0,meteobridge,2013-05-03 13:11:00,
2013-05-03 08:12:00,46.0,39.9,30.19,NNE,24,4.0,6.0,79,0.00,,,0.00,163.0,meteobridge,2013-05-03 13:12:00,
2013-05-03 08:14:00,46.6,40.5,30.19,NNE,24,0.0,4.9,79,0.00,,,0.00,158.0,meteobridge,2013-05-03 13:14:00,
2013-05-03 08:15:00,46.6,40.5,30.19,NW,315,6.9,11.0,79,0.00,,,0.00,158.0,meteobridge,2013-05-03 13:15:00,
2013-05-03 08:17:00,46.8,40.3,30.19,NW,322,6.9,8.9,78,0.00,,,0.00,183.0,meteobridge,2013-05-03 13:17:00,
2013-05-03 08:18:00,46.8,40.3,30.18,NNW,332,2.0,6.9,78,0.00,,,0.00,174.0,meteobridge,2013-05-03 13:18:00,
2013-05-03 08:19:00,46.8,40.3,30.18,NW,309,4.9,6.0,78,0.00,,,0.00,193.0,meteobridge,2013-05-03 13:19:00,
2013-05-03 08:20:00,46.8,39.9,30.18,NNW,335,0.9,8.1,77,0.00,,,0.00,260.0,meteobridge,2013-05-03 13:20:00,
2013-05-03 08:21:00,46.8,39.9,30.18,NW,322,6.0,8.1,77,0.00,,,0.00,260.0,meteobridge,2013-05-03 13:21:00,
2013-05-03 08:23:00,46.8,39.9,30.18,WNW,288,4.0,6.0,77,0.00,,,0.00,200.0,meteobridge,2013-05-03 13:23:00,
2013-05-03 08:25:00,46.8,40.3,30.19,WNW,298,2.0,6.0,78,0.00,,,0.00,176.0,meteobridge,2013-05-03 13:25:00,
2013-05-03 08:26:00,46.8,40.3,30.18,NW,312,0.0,6.0,78,0.00,,,0.00,163.0,meteobridge,2013-05-03 13:26:00,
2013-05-03 08:28:00,46.9,40.1,30.19,WNW,296,10.1,11.0,77,0.00,,,0.00,190.0,meteobridge,2013-05-03 13:28:00,
2013-05-03 08:30:00,46.8,39.6,30.19,NNW,342,0.9,10.1,76,0.00,,,0.00,195.0,meteobridge,2013-05-03 13:30:00,
2013-05-03 08:31:00,46.8,39.6,30.19,North,9,0.9,10.1,76,0.00,,,0.00,193.0,meteobridge,2013-05-03 13:31:00,
2013-05-03 08:33:00,46.9,39.7,30.19,NNW,341,14.1,14.1,76,0.00,,,0.00,227.0,meteobridge,2013-05-03 13:33:00,
2013-05-03 08:36:00,46.8,39.2,30.19,WNW,293,2.0,8.9,75,0.00,,,0.00,190.0,meteobridge,2013-05-03 13:36:00,
2013-05-03 08:37:00,46.8,39.6,30.19,West,267,8.1,8.1,76,0.00,,,0.00,190.0,meteobridge,2013-05-03 13:37:00,
2013-05-03 08:40:00,46.9,39.7,30.19,North,355,8.1,12.1,76,0.00,,,0.00,181.0,meteobridge,2013-05-03 13:40:00,
2013-05-03 08:41:00,46.9,39.4,30.19,West,273,2.9,8.1,75,0.00,,,0.00,176.0,meteobridge,2013-05-03 13:41:00,
2013-05-03 08:42:00,46.8,39.2,30.19,NNW,328,4.0,8.1,75,0.00,,,0.00,211.0,meteobridge,2013-05-03 13:42:00,
2013-05-03 08:44:00,46.8,39.2,30.19,WSW,249,2.0,13.0,75,0.00,,,0.00,218.0,meteobridge,2013-05-03 13:44:00,
2013-05-03 08:45:00,46.6,39.0,30.19,West,265,2.9,8.9,75,0.00,,,0.00,264.0,meteobridge,2013-05-03 13:45:00,
2013-05-03 08:46:00,46.6,39.0,30.19,NW,319,6.9,8.9,75,0.00,,,0.00,181.0,meteobridge,2013-05-03 13:46:00,
2013-05-03 08:47:00,46.6,39.4,30.18,NNW,327,4.0,8.9,76,0.00,,,0.00,181.0,meteobridge,2013-05-03 13:47:00,
2013-05-03 08:49:00,46.8,39.6,30.19,NW,324,2.0,8.9,76,0.00,,,0.00,264.0,meteobridge,2013-05-03 13:49:00,
2013-05-03 08:51:00,46.9,39.7,30.18,NE,55,0.9,6.0,76,0.00,,,0.00,135.0,meteobridge,2013-05-03 13:51:00,
2013-05-03 08:52:00,46.9,39.7,30.18,NNW,340,4.0,6.0,76,0.00,,,0.00,163.0,meteobridge,2013-05-03 13:52:00,
2013-05-03 08:53:00,47.1,39.9,30.18,NNW,330,2.0,4.9,76,0.00,,,0.00,163.0,meteobridge,2013-05-03 13:53:00,
2013-05-03 08:54:00,47.1,39.9,30.19,WNW,285,4.0,10.1,76,0.00,,,0.00,183.0,meteobridge,2013-05-03 13:54:00,
2013-05-03 08:56:00,47.1,39.9,30.19,WNW,295,6.9,12.1,76,0.00,,,0.00,141.0,meteobridge,2013-05-03 13:56:00,
2013-05-03 08:57:00,47.1,39.2,30.18,WNW,298,2.0,11.0,74,0.00,,,0.00,248.0,meteobridge,2013-05-03 13:57:00,
2013-05-03 08:58:00,47.1,39.6,30.19,West,259,6.0,8.9,75,0.00,,,0.00,322.0,meteobridge,2013-05-03 13:58:00,
2013-05-03 09:00:00,47.5,40.3,30.18,NW,314,0.9,8.1,76,0.00,,,0.00,346.0,meteobridge,2013-05-03 14:00:00,
2013-05-03 09:01:00,47.8,40.6,30.18,WNW,286,4.0,4.9,76,0.00,,,0.00,346.0,meteobridge,2013-05-03 14:01:00,
2013-05-03 09:02:00,48.0,40.5,30.18,NW,305,4.0,6.9,75,0.00,,,0.00,534.0,meteobridge,2013-05-03 14:02:00,
2013-05-03 09:03:00,48.2,40.3,30.18,West,265,6.0,6.9,74,0.00,,,0.00,534.0,meteobridge,2013-05-03 14:03:00,
2013-05-03 09:05:00,48.6,40.3,30.18,NNW,344,4.0,8.1,73,0.00,,,0.00,431.0,meteobridge,2013-05-03 14:05:00,
2013-05-03 09:06:00,48.6,40.3,30.18,North,5,0.0,8.1,73,0.00,,,0.00,461.0,meteobridge,2013-05-03 14:06:00,
2013-05-03 09:08:00,48.7,40.8,30.18,North,0,0.9,2.0,74,0.00,,,0.00,547.0,meteobridge,2013-05-03 14:08:00,
2013-05-03 09:11:00,48.7,40.5,30.18,NNW,338,2.0,4.9,73,0.00,,,0.00,534.0,meteobridge,2013-05-03 14:11:00,
2013-05-03 09:13:00,49.3,41.0,30.19,WSW,244,2.9,6.9,73,0.00,,,0.00,559.0,meteobridge,2013-05-03 14:13:00,
2013-05-03 09:15:00,49.6,41.0,30.18,NE,40,2.0,10.1,72,0.00,,,0.00,563.0,meteobridge,2013-05-03 14:15:00,
2013-05-03 09:18:00,49.6,40.3,30.18,NNW,334,2.0,11.0,70,0.00,,,0.00,577.0,meteobridge,2013-05-03 14:18:00,
2013-05-03 09:19:00,49.6,40.6,30.18,West,261,6.9,10.1,71,0.00,,,0.00,577.0,meteobridge,2013-05-03 14:19:00,
2013-05-03 09:21:00,49.5,40.5,30.19,WNW,288,2.9,15.0,71,0.00,,,0.00,619.0,meteobridge,2013-05-03 14:21:00,
2013-05-03 09:23:00,49.8,41.2,30.18,WNW,287,2.0,6.9,72,0.00,,,0.00,619.0,meteobridge,2013-05-03 14:23:00,
2013-05-03 09:24:00,50.0,41.0,30.19,WNW,297,2.9,4.9,71,0.00,,,0.00,619.0,meteobridge,2013-05-03 14:24:00,
2013-05-03 09:25:00,49.8,40.5,30.18,West,278,10.1,11.0,70,0.00,,,0.00,621.0,meteobridge,2013-05-03 14:25:00,
2013-05-03 09:26:00,49.8,40.5,30.18,West,279,4.9,15.0,70,0.00,,,0.00,636.0,meteobridge,2013-05-03 14:26:00,
2013-05-03 09:28:00,49.8,40.8,30.18,West,266,2.0,8.9,71,0.00,,,0.00,629.0,meteobridge,2013-05-03 14:28:00,
2013-05-03 09:29:00,49.8,40.8,30.18,NW,315,2.9,12.1,71,0.00,,,0.00,629.0,meteobridge,2013-05-03 14:29:00,
2013-05-03 09:31:00,49.8,40.1,30.18,NW,321,8.1,14.1,69,0.00,,,0.00,650.0,meteobridge,2013-05-03 14:31:00,
2013-05-03 09:33:00,49.8,40.5,30.18,NW,324,2.9,11.0,70,0.00,,,0.00,624.0,meteobridge,2013-05-03 14:33:00,
2013-05-03 09:34:00,50.0,40.6,30.18,WNW,298,2.0,8.1,70,0.00,,,0.00,629.0,meteobridge,2013-05-03 14:34:00,
2013-05-03 09:35:00,50.0,40.6,30.18,WNW,298,2.0,8.1,70,0.00,,,0.00,613.0,meteobridge,2013-05-03 14:35:00,
2013-05-03 09:36:00,50.2,40.8,30.19,SW,233,4.0,10.1,70,0.00,,,0.00,638.0,meteobridge,2013-05-03 14:36:00,
2013-05-03 09:37:00,50.2,40.5,30.18,WNW,282,4.0,10.1,69,0.00,,,0.00,650.0,meteobridge,2013-05-03 14:37:00,
2013-05-03 09:39:00,50.4,41.0,30.19,NW,314,2.9,10.1,70,0.00,,,0.00,633.0,meteobridge,2013-05-03 14:39:00,
2013-05-03 09:40:00,50.7,41.4,30.19,West,280,8.1,8.1,70,0.00,,,0.00,657.0,meteobridge,2013-05-03 14:40:00,
2013-05-03 09:41:00,50.9,41.5,30.18,NNW,342,4.0,8.1,70,0.00,,,0.00,663.0,meteobridge,2013-05-03 14:41:00,
2013-05-03 09:42:00,51.3,41.4,30.19,WNW,300,0.0,6.9,69,0.00,,,0.00,659.0,meteobridge,2013-05-03 14:42:00,
2013-05-03 09:43:00,51.3,41.4,30.19,WNW,299,2.0,4.9,69,0.00,,,0.00,654.0,meteobridge,2013-05-03 14:43:00,
2013-05-03 09:44:00,51.6,41.7,30.19,West,266,4.9,4.9,69,0.00,,,0.00,647.0,meteobridge,2013-05-03 14:44:00,
2013-05-03 09:46:00,51.8,41.9,30.19,NW,310,2.9,4.9,69,0.00,,,0.00,643.0,meteobridge,2013-05-03 14:46:00,
2013-05-03 09:48:00,52.3,42.1,30.19,North,351,10.1,13.0,68,0.00,,,0.00,650.0,meteobridge,2013-05-03 14:48:00,
2013-05-03 09:49:00,52.3,41.7,30.19,NW,304,4.9,13.0,67,0.00,,,0.00,656.0,meteobridge,2013-05-03 14:49:00,
2013-05-03 09:50:00,52.2,41.5,30.18,NW,314,0.9,13.0,67,0.00,,,0.00,656.0,meteobridge,2013-05-03 14:50:00,
2013-05-03 09:51:00,52.3,42.1,30.19,NE,49,2.9,13.0,68,0.00,,,0.00,659.0,meteobridge,2013-05-03 14:51:00,
2013-05-03 09:53:00,52.9,41.9,30.19,West,271,4.0,10.1,66,0.00,,,0.00,682.0,meteobridge,2013-05-03 14:53:00,
2013-05-03 09:54:00,52.7,41.7,30.19,North,0,4.9,10.1,66,0.00,,,0.00,677.0,meteobridge,2013-05-03 14:54:00,
2013-05-03 09:55:00,52.5,41.5,30.19,WNW,286,8.9,8.9,66,0.00,,,0.00,673.0,meteobridge,2013-05-03 14:55:00,
2013-05-03 09:56:00,52.3,41.0,30.19,NNE,21,8.1,8.9,65,0.00,,,0.00,677.0,meteobridge,2013-05-03 14:56:00,
2013-05-03 09:59:00,52.2,41.2,30.19,WNW,301,0.9,8.9,66,0.00,,,0.00,707.0,meteobridge,2013-05-03 14:59:00,
2013-05-03 10:00:00,52.2,41.2,30.19,NW,316,0.9,8.1,66,0.00,,,0.00,707.0,meteobridge,2013-05-03 15:00:00,
2013-05-03 10:02:00,52.9,41.9,30.18,NW,325,2.0,6.9,66,0.00,,,0.00,700.0,meteobridge,2013-05-03 15:02:00,
2013-05-03 10:04:00,53.2,42.3,30.18,North,11,2.9,6.0,66,0.00,,,0.00,712.0,meteobridge,2013-05-03 15:04:00,
2013-05-03 10:05:00,53.6,42.1,30.18,SW,226,8.9,10.1,65,0.00,,,0.00,719.0,meteobridge,2013-05-03 15:05:00,
2013-05-03 10:06:00,53.2,41.4,30.18,WNW,302,6.0,10.1,64,0.00,,,0.00,715.0,meteobridge,2013-05-03 15:06:00,
2013-05-03 10:07:00,53.1,40.8,30.18,WNW,290,10.1,11.0,63,0.00,,,0.00,724.0,meteobridge,2013-05-03 15:07:00,
2013-05-03 10:09:00,52.9,41.4,30.18,WNW,284,8.1,14.1,65,0.00,,,0.00,726.0,meteobridge,2013-05-03 15:09:00,
2013-05-03 10:11:00,53.1,42.1,30.19,West,262,6.0,8.9,66,0.00,,,0.00,728.0,meteobridge,2013-05-03 15:11:00,
2013-05-03 10:12:00,53.2,41.7,30.18,NW,311,4.9,8.1,65,0.00,,,0.00,731.0,meteobridge,2013-05-03 15:12:00,
2013-05-03 10:13:00,53.2,41.4,30.18,WNW,284,2.9,8.1,64,0.00,,,0.00,735.0,meteobridge,2013-05-03 15:13:00,
2013-05-03 10:14:00,53.4,42.3,30.18,North,355,2.9,11.0,66,0.00,,,0.00,747.0,meteobridge,2013-05-03 15:14:00,
2013-05-03 10:15:00,53.6,41.7,30.18,West,265,4.0,11.0,64,0.00,,,0.00,742.0,meteobridge,2013-05-03 15:15:00,
2013-05-03 10:16:00,53.8,41.5,30.19,WNW,298,2.0,6.9,63,0.00,,,0.00,744.0,meteobridge,2013-05-03 15:16:00,
2013-05-03 10:17:00,53.8,41.9,30.18,NNW,340,4.0,6.9,64,0.00,,,0.00,745.0,meteobridge,2013-05-03 15:17:00,
2013-05-03 10:18:00,54.0,42.1,30.19,West,281,8.1,8.1,64,0.00,,,0.00,751.0,meteobridge,2013-05-03 15:18:00,
2013-05-03 10:20:00,54.3,42.1,30.19,WNW,292,2.9,14.1,63,0.00,,,0.00,758.0,meteobridge,2013-05-03 15:20:00,
2013-05-03 10:22:00,54.7,42.8,30.18,NNE,32,4.0,6.9,64,0.00,,,0.00,759.0,meteobridge,2013-05-03 15:22:00,
2013-05-03 10:24:00,54.7,41.9,30.19,NNE,33,0.0,11.0,62,0.00,,,0.00,766.0,meteobridge,2013-05-03 15:24:00,
2013-05-03 10:25:00,54.9,42.1,30.19,NW,317,2.0,6.9,62,0.00,,,0.00,768.0,meteobridge,2013-05-03 15:25:00,
2013-05-03 10:26:00,55.0,42.3,30.19,NW,313,0.9,6.9,62,0.00,,,0.00,773.0,meteobridge,2013-05-03 15:26:00,
2013-05-03 10:28:00,55.2,42.4,30.19,North,5,2.9,6.0,62,0.00,,,0.00,777.0,meteobridge,2013-05-03 15:28:00,
2013-05-03 10:30:00,55.8,42.1,30.19,NW,324,6.0,10.1,60,0.00,,,0.00,780.0,meteobridge,2013-05-03 15:30:00,
2013-05-03 10:31:00,55.6,42.3,30.19,NE,49,6.0,10.1,61,0.00,,,0.00,784.0,meteobridge,2013-05-03 15:31:00,
2013-05-03 10:33:00,55.4,42.3,30.18,West,277,4.0,6.9,61,0.00,,,0.00,789.0,meteobridge,2013-05-03 15:33:00,
2013-05-03 10:36:00,55.0,42.3,30.18,NNW,327,2.0,8.1,62,0.00,,,0.00,796.0,meteobridge,2013-05-03 15:36:00,
2013-05-03 10:37:00,55.0,41.9,30.18,NNW,344,6.9,10.1,61,0.00,,,0.00,796.0,meteobridge,2013-05-03 15:37:00,
2013-05-03 10:38:00,55.0,42.3,30.18,South,188,0.9,10.1,62,0.00,,,0.00,802.0,meteobridge,2013-05-03 15:38:00,
2013-05-03 10:39:00,55.0,42.6,30.18,North,349,4.0,8.9,63,0.00,,,0.00,802.0,meteobridge,2013-05-03 15:39:00,
2013-05-03 10:41:00,55.8,43.0,30.18,NW,305,0.0,10.1,62,0.00,,,0.00,807.0,meteobridge,2013-05-03 15:41:00,
2013-05-03 10:42:00,55.8,42.4,30.18,NE,40,4.9,10.1,61,0.00,,,0.00,809.0,meteobridge,2013-05-03 15:42:00,
2013-05-03 10:43:00,55.8,42.4,30.18,West,279,4.0,10.1,61,0.00,,,0.00,812.0,meteobridge,2013-05-03 15:43:00,
2013-05-03 10:44:00,55.8,42.4,30.18,WNW,284,6.0,10.1,61,0.00,,,0.00,812.0,meteobridge,2013-05-03 15:44:00,
2013-05-03 10:47:00,55.4,41.4,30.18,WNW,300,4.9,16.1,59,0.00,,,0.00,824.0,meteobridge,2013-05-03 15:47:00,
2013-05-03 10:49:00,55.0,41.9,30.18,NW,326,6.0,12.1,61,0.00,,,0.00,823.0,meteobridge,2013-05-03 15:49:00,
2013-05-03 10:52:00,55.6,42.3,30.18,NNE,19,2.9,11.0,61,0.00,,,0.00,821.0,meteobridge,2013-05-03 15:52:00,
2013-05-03 10:53:00,55.8,42.4,30.18,WNW,286,6.0,11.0,61,0.00,,,0.00,838.0,meteobridge,2013-05-03 15:53:00,
2013-05-03 10:54:00,55.9,42.6,30.18,North,5,0.9,8.1,61,0.00,,,0.00,837.0,meteobridge,2013-05-03 15:54:00,
2013-05-03 10:55:00,56.3,43.0,30.18,NW,304,0.9,8.9,61,0.00,,,0.00,842.0,meteobridge,2013-05-03 15:55:00,
2013-05-03 10:58:00,56.7,42.4,30.18,NW,305,4.0,8.1,59,0.00,,,0.00,847.0,meteobridge,2013-05-03 15:58:00,
2013-05-03 11:00:00,57.2,43.0,30.18,WNW,292,2.0,6.9,59,0.00,,,0.00,856.0,meteobridge,2013-05-03 16:00:00,
2013-05-03 11:01:00,57.0,42.4,30.18,WNW,292,6.0,8.1,58,0.00,,,0.00,854.0,meteobridge,2013-05-03 16:01:00,
2013-05-03 11:03:00,56.8,42.3,30.18,West,273,4.0,12.1,58,0.00,,,0.00,856.0,meteobridge,2013-05-03 16:03:00,
2013-05-03 11:04:00,56.7,42.1,30.19,North,350,2.9,12.1,58,0.00,,,0.00,856.0,meteobridge,2013-05-03 16:04:00,
2013-05-03 11:05:00,56.7,42.1,30.18,North,355,2.0,12.1,58,0.00,,,0.00,861.0,meteobridge,2013-05-03 16:05:00,
2013-05-03 11:06:00,56.7,42.4,30.18,North,355,4.9,12.1,59,0.00,,,0.00,861.0,meteobridge,2013-05-03 16:06:00,
2013-05-03 11:07:00,57.4,43.7,30.18,WNW,298,4.0,8.1,60,0.00,,,0.00,865.0,meteobridge,2013-05-03 16:07:00,
2013-05-03 11:09:00,57.4,42.8,30.18,North,355,2.0,8.9,58,0.00,,,0.00,867.0,meteobridge,2013-05-03 16:09:00,
2013-05-03 11:10:00,57.4,43.2,30.18,WNW,284,4.9,8.9,59,0.00,,,0.00,872.0,meteobridge,2013-05-03 16:10:00,
2013-05-03 11:11:00,57.4,43.2,30.18,NW,321,0.9,8.1,59,0.00,,,0.00,872.0,meteobridge,2013-05-03 16:11:00,
2013-05-03 11:13:00,57.6,42.4,30.18,North,355,4.9,13.0,57,0.00,,,0.00,874.0,meteobridge,2013-05-03 16:13:00,
2013-05-03 11:14:00,57.4,42.3,30.18,WNW,293,8.1,10.1,57,0.00,,,0.00,879.0,meteobridge,2013-05-03 16:14:00,
2013-05-03 11:15:00,57.4,41.9,30.18,NNW,344,8.9,11.0,56,0.00,,,0.00,879.0,meteobridge,2013-05-03 16:15:00,
2013-05-03 11:16:00,57.0,41.9,30.18,NNW,345,4.0,11.0,57,0.00,,,0.00,881.0,meteobridge,2013-05-03 16:16:00,
2013-05-03 11:18:00,57.2,42.6,30.18,NNW,338,2.0,6.0,58,0.00,,,0.00,886.0,meteobridge,2013-05-03 16:18:00,
2013-05-03 11:20:00,57.6,43.0,30.18,North,0,2.0,10.1,58,0.00,,,0.00,891.0,meteobridge,2013-05-03 16:20:00,
2013-05-03 11:21:00,57.7,43.0,30.18,NNW,328,2.0,10.1,58,0.00,,,0.00,889.0,meteobridge,2013-05-03 16:21:00,
2013-05-03 11:22:00,58.3,43.2,30.18,WNW,284,4.9,8.9,57,0.00,,,0.00,895.0,meteobridge,2013-05-03 16:22:00,
2013-05-03 11:24:00,58.1,42.4,30.18,NW,325,4.0,13.0,56,0.00,,,0.00,898.0,meteobridge,2013-05-03 16:24:00,
2013-05-03 11:26:00,58.6,43.0,30.18,NW,321,2.0,11.0,56,0.00,,,0.00,904.0,meteobridge,2013-05-03 16:26:00,
2013-05-03 11:28:00,58.6,43.0,30.18,WNW,292,4.0,6.9,56,0.00,,,0.00,904.0,meteobridge,2013-05-03 16:28:00,
2013-05-03 11:30:00,58.3,42.3,30.18,NW,326,2.0,13.0,55,0.00,,,0.00,911.0,meteobridge,2013-05-03 16:30:00,
2013-05-03 11:31:00,58.3,42.3,30.18,NNW,334,2.0,13.0,55,0.00,,,0.00,912.0,meteobridge,2013-05-03 16:31:00,
2013-05-03 11:32:00,58.5,42.8,30.18,WNW,294,4.0,13.0,56,0.00,,,0.00,912.0,meteobridge,2013-05-03 16:32:00,
2013-05-03 11:33:00,58.5,42.4,30.18,NNW,330,0.9,13.0,55,0.00,,,0.00,918.0,meteobridge,2013-05-03 16:33:00,
2013-05-03 11:36:00,58.3,42.3,30.18,West,277,6.0,16.1,55,0.00,,,0.00,923.0,meteobridge,2013-05-03 16:36:00,
2013-05-03 11:37:00,58.3,42.3,30.18,West,277,0.9,16.1,55,0.00,,,0.00,919.0,meteobridge,2013-05-03 16:37:00,
2013-05-03 11:38:00,58.1,42.1,30.18,West,275,4.9,8.9,55,0.00,,,0.00,925.0,meteobridge,2013-05-03 16:38:00,
2013-05-03 11:42:00,58.5,42.4,30.18,North,351,4.0,10.1,55,0.00,,,0.00,932.0,meteobridge,2013-05-03 16:42:00,
2013-05-03 11:43:00,58.8,43.2,30.18,West,272,6.0,11.0,56,0.00,,,0.00,933.0,meteobridge,2013-05-03 16:43:00,
2013-05-03 11:44:00,59.0,42.8,30.18,WNW,288,6.0,11.0,55,0.00,,,0.00,935.0,meteobridge,2013-05-03 16:44:00,
2013-05-03 11:45:00,58.8,42.3,30.18,WSW,253,6.0,11.0,54,0.00,,,0.00,935.0,meteobridge,2013-05-03 16:45:00,
2013-05-03 11:47:00,59.4,42.8,30.18,WSW,240,4.0,10.1,54,0.00,,,0.00,939.0,meteobridge,2013-05-03 16:47:00,
2013-05-03 11:48:00,59.4,42.8,30.18,ENE,65,6.9,10.1,54,0.00,,,0.00,944.0,meteobridge,2013-05-03 16:48:00,
2013-05-03 11:49:00,59.7,43.0,30.18,North,355,6.0,10.1,54,0.00,,,0.00,942.0,meteobridge,2013-05-03 16:49:00,
2013-05-03 11:50:00,59.7,42.6,30.17,NNW,347,4.0,8.9,53,0.00,,,0.00,944.0,meteobridge,2013-05-03 16:50:00,
2013-05-03 11:53:00,60.1,43.0,30.17,NW,323,2.0,8.9,53,0.00,,,0.00,949.0,meteobridge,2013-05-03 16:53:00,
2013-05-03 11:54:00,60.3,44.1,30.17,NE,44,2.9,6.9,55,0.00,,,0.00,949.0,meteobridge,2013-05-03 16:54:00,
2013-05-03 11:55:00,60.6,44.4,30.18,WNW,295,4.9,6.9,55,0.00,,,0.00,953.0,meteobridge,2013-05-03 16:55:00,
2013-05-03 11:56:00,60.6,43.0,30.17,North,5,2.0,15.0,52,0.00,,,0.00,951.0,meteobridge,2013-05-03 16:56:00,
2013-05-03 11:58:00,60.4,42.8,30.17,West,275,14.1,17.9,52,0.00,,,0.00,953.0,meteobridge,2013-05-03 16:58:00,
2013-05-03 11:59:00,60.3,42.6,30.18,West,278,13.0,17.9,52,0.00,,,0.00,956.0,meteobridge,2013-05-03 16:59:00,
2013-05-03 12:00:00,59.9,41.7,30.17,NNW,329,2.0,17.9,51,0.00,,,0.00,958.0,meteobridge,2013-05-03 17:00:00,
2013-05-03 12:01:00,59.5,41.9,30.17,NNW,331,6.0,14.1,52,0.00,,,0.00,958.0,meteobridge,2013-05-03 17:01:00,
2013-05-03 12:03:00,59.7,43.5,30.17,NW,321,6.9,6.9,55,0.00,,,0.00,963.0,meteobridge,2013-05-03 17:03:00,
2013-05-03 12:05:00,59.5,42.8,30.17,NNE,24,2.9,16.1,54,0.00,,,0.00,963.0,meteobridge,2013-05-03 17:05:00,
2013-05-03 12:06:00,59.7,43.0,30.17,West,277,2.9,6.0,54,0.00,,,0.00,965.0,meteobridge,2013-05-03 17:06:00,
2013-05-03 12:08:00,60.1,43.9,30.17,West,261,2.0,6.9,55,0.00,,,0.00,970.0,meteobridge,2013-05-03 17:08:00,
2013-05-03 12:10:00,61.0,44.2,30.17,West,270,2.9,6.0,54,0.00,,,0.00,976.0,meteobridge,2013-05-03 17:10:00,
2013-05-03 12:11:00,61.2,43.9,30.17,NE,34,4.0,6.0,53,0.00,,,0.00,976.0,meteobridge,2013-05-03 17:11:00,
2013-05-03 12:12:00,61.5,46.2,30.17,SW,223,4.9,13.0,57,0.00,,,0.00,977.0,meteobridge,2013-05-03 17:12:00,
2013-05-03 12:13:00,61.7,44.4,30.17,North,0,14.1,14.1,53,0.00,,,0.00,976.0,meteobridge,2013-05-03 17:13:00,
2013-05-03 12:16:00,61.5,42.6,30.17,NW,306,10.1,11.0,50,0.00,,,0.00,977.0,meteobridge,2013-05-03 17:16:00,
2013-05-03 12:17:00,61.3,42.6,30.17,NE,55,6.0,10.1,50,0.00,,,0.00,979.0,meteobridge,2013-05-03 17:17:00,
2013-05-03 12:18:00,61.5,42.3,30.17,WNW,292,2.0,10.1,49,0.00,,,0.00,977.0,meteobridge,2013-05-03 17:18:00,
2013-05-03 12:19:00,61.3,42.1,30.17,NNW,329,6.0,8.9,49,0.00,,,0.00,979.0,meteobridge,2013-05-03 17:19:00,
2013-05-03 12:22:00,60.6,42.4,30.17,WNW,294,2.0,8.9,51,0.00,,,0.00,983.0,meteobridge,2013-05-03 17:22:00,
2013-05-03 12:25:00,62.1,44.2,30.17,NW,308,2.9,6.0,52,0.00,,,0.00,988.0,meteobridge,2013-05-03 17:25:00,
2013-05-03 12:27:00,63.0,45.5,30.17,WNW,288,14.1,14.1,53,0.00,,,0.00,984.0,meteobridge,2013-05-03 17:27:00,
2013-05-03 12:28:00,63.0,45.5,30.17,North,351,2.9,14.1,53,0.00,,,0.00,984.0,meteobridge,2013-05-03 17:28:00,
2013-05-03 12:30:00,62.1,42.1,30.16,NNW,338,4.0,12.1,48,0.00,,,0.00,988.0,meteobridge,2013-05-03 17:30:00,
2013-05-03 12:31:00,62.1,42.1,30.16,North,351,2.9,12.1,48,0.00,,,0.00,986.0,meteobridge,2013-05-03 17:31:00,
2013-05-03 12:32:00,62.1,43.2,30.16,NNE,20,4.9,6.9,50,0.00,,,0.00,991.0,meteobridge,2013-05-03 17:32:00,
2013-05-03 12:33:00,62.2,43.9,30.16,West,260,6.9,13.0,51,0.00,,,0.00,991.0,meteobridge,2013-05-03 17:33:00,
2013-05-03 12:34:00,62.4,42.4,30.16,WNW,290,6.0,14.1,48,0.00,,,0.00,990.0,meteobridge,2013-05-03 17:34:00,
2013-05-03 12:36:00,62.1,41.5,30.16,NW,311,2.0,10.1,47,0.00,,,0.00,993.0,meteobridge,2013-05-03 17:36:00,
2013-05-03 12:38:00,62.1,42.6,30.16,WNW,288,6.9,12.1,49,0.00,,,0.00,991.0,meteobridge,2013-05-03 17:38:00,
2013-05-03 12:40:00,61.9,41.4,30.16,WNW,287,4.9,12.1,47,0.00,,,0.00,991.0,meteobridge,2013-05-03 17:40:00,
2013-05-03 12:41:00,61.9,40.8,30.16,WNW,290,8.9,13.0,46,0.00,,,0.00,993.0,meteobridge,2013-05-03 17:41:00,
2013-05-03 12:43:00,61.3,39.7,30.16,NW,315,4.0,15.0,45,0.00,,,0.00,991.0,meteobridge,2013-05-03 17:43:00,
2013-05-03 12:44:00,61.2,39.7,30.16,WNW,284,6.0,14.1,45,0.00,,,0.00,991.0,meteobridge,2013-05-03 17:44:00,
2013-05-03 12:45:00,61.3,41.5,30.16,NNW,337,4.0,13.0,48,0.00,,,0.00,997.0,meteobridge,2013-05-03 17:45:00,
2013-05-03 12:46:00,61.5,42.3,30.16,WNW,292,2.9,6.0,49,0.00,,,0.00,1000.0,meteobridge,2013-05-03 17:46:00,
2013-05-03 12:47:00,61.7,42.3,30.16,WNW,300,15.0,15.0,49,0.00,,,0.00,997.0,meteobridge,2013-05-03 17:47:00,
2013-05-03 12:48:00,61.5,41.2,30.15,WSW,237,8.1,15.0,47,0.00,,,0.00,998.0,meteobridge,2013-05-03 17:48:00,
2013-05-03 12:49:00,61.5,39.9,30.15,WNW,291,4.0,13.0,45,0.00,,,0.00,998.0,meteobridge,2013-05-03 17:49:00,
2013-05-03 12:50:00,61.3,39.7,30.16,NW,304,0.0,13.0,45,0.00,,,0.00,997.0,meteobridge,2013-05-03 17:50:00,
2013-05-03 12:52:00,61.9,41.4,30.15,NNW,338,4.9,14.1,47,0.00,,,0.00,997.0,meteobridge,2013-05-03 17:52:00,
2013-05-03 12:54:00,63.3,41.5,30.15,North,355,2.9,10.1,45,0.00,,,0.00,998.0,meteobridge,2013-05-03 17:54:00,
2013-05-03 12:56:00,63.1,40.8,30.15,West,276,6.9,14.1,44,0.00,,,0.00,998.0,meteobridge,2013-05-03 17:56:00,
2013-05-03 12:57:00,63.0,40.1,30.15,NNE,28,6.0,8.1,43,0.00,,,0.00,998.0,meteobridge,2013-05-03 17:57:00,
2013-05-03 12:58:00,63.1,41.5,30.15,NW,319,6.9,11.0,45,0.00,,,0.00,998.0,meteobridge,2013-05-03 17:58:00,
2013-05-03 12:59:00,63.0,40.6,30.15,SW,236,4.0,11.0,44,0.00,,,0.00,1000.0,meteobridge,2013-05-03 17:59:00,
2013-05-03 13:01:00,62.8,41.2,30.15,North,355,4.0,6.9,45,0.00,,,0.00,1002.0,meteobridge,2013-05-03 18:01:00,
2013-05-03 13:02:00,63.1,40.8,30.15,NNW,345,2.0,6.0,44,0.00,,,0.00,1000.0,meteobridge,2013-05-03 18:02:00,
2013-05-03 13:03:00,63.3,40.5,30.15,WNW,293,2.9,8.1,43,0.00,,,0.00,1000.0,meteobridge,2013-05-03 18:03:00,
2013-05-03 13:04:00,63.1,39.0,30.15,NNW,342,8.1,23.0,41,0.00,,,0.00,997.0,meteobridge,2013-05-03 18:04:00,
2013-05-03 13:06:00,63.3,41.0,30.15,NW,315,4.9,8.9,44,0.00,,,0.00,997.0,meteobridge,2013-05-03 18:06:00,
2013-05-03 13:07:00,63.7,40.8,30.15,NNW,339,6.9,6.9,43,0.00,,,0.00,998.0,meteobridge,2013-05-03 18:07:00,
2013-05-03 13:08:00,63.9,41.0,30.15,WNW,295,6.9,8.1,43,0.00,,,0.00,1000.0,meteobridge,2013-05-03 18:08:00,
2013-05-03 13:09:00,63.9,40.3,30.15,West,275,4.9,10.1,42,0.00,,,0.00,998.0,meteobridge,2013-05-03 18:09:00,
2013-05-03 13:10:00,63.7,40.1,30.15,NW,312,4.0,10.1,42,0.00,,,0.00,998.0,meteobridge,2013-05-03 18:10:00,
2013-05-03 13:12:00,63.1,42.1,30.15,West,281,6.0,10.1,46,0.00,,,0.00,998.0,meteobridge,2013-05-03 18:12:00,
2013-05-03 13:13:00,63.1,42.1,30.15,North,355,6.0,11.0,46,0.00,,,0.00,998.0,meteobridge,2013-05-03 18:13:00,
2013-05-03 13:15:00,63.0,40.1,30.15,WNW,295,2.0,11.0,43,0.00,,,0.00,998.0,meteobridge,2013-05-03 18:15:00,
2013-05-03 13:16:00,63.0,40.6,30.15,NNW,345,2.0,11.0,44,0.00,,,0.00,997.0,meteobridge,2013-05-03 18:16:00,
2013-05-03 13:18:00,64.0,40.5,30.14,NW,304,6.9,10.1,42,0.00,,,0.00,995.0,meteobridge,2013-05-03 18:18:00,
2013-05-03 13:19:00,64.0,40.5,30.15,West,263,8.9,10.1,42,0.00,,,0.00,998.0,meteobridge,2013-05-03 18:19:00,
2013-05-03 13:21:00,63.7,38.8,30.14,NW,317,8.1,15.0,40,0.00,,,0.00,997.0,meteobridge,2013-05-03 18:21:00,
2013-05-03 13:23:00,63.0,39.6,30.14,NNE,22,4.9,12.1,42,0.00,,,0.00,995.0,meteobridge,2013-05-03 18:23:00,
2013-05-03 13:24:00,63.1,39.7,30.14,NNW,329,2.9,12.1,42,0.00,,,0.00,995.0,meteobridge,2013-05-03 18:24:00,
2013-05-03 13:25:00,63.9,40.3,30.14,WNW,282,2.9,4.9,42,0.00,,,0.00,995.0,meteobridge,2013-05-03 18:25:00,
2013-05-03 13:26:00,64.0,39.9,30.14,West,279,6.0,12.1,41,0.00,,,0.00,990.0,meteobridge,2013-05-03 18:26:00,
2013-05-03 13:27:00,64.0,39.9,30.14,WNW,289,8.9,14.1,41,0.00,,,0.00,990.0,meteobridge,2013-05-03 18:27:00,
2013-05-03 13:29:00,63.7,39.6,30.14,NNW,329,6.9,14.1,41,0.00,,,0.00,986.0,meteobridge,2013-05-03 18:29:00,
2013-05-03 13:30:00,64.0,40.5,30.14,NW,312,6.9,10.1,42,0.00,,,0.00,984.0,meteobridge,2013-05-03 18:30:00,
2013-05-03 13:31:00,64.2,40.6,30.14,NNW,346,6.0,10.1,42,0.00,,,0.00,991.0,meteobridge,2013-05-03 18:31:00,
2013-05-03 13:33:00,64.0,37.9,30.14,WNW,298,4.0,12.1,38,0.00,,,0.00,949.0,meteobridge,2013-05-03 18:33:00,
2013-05-03 13:35:00,63.9,37.8,30.14,NW,315,4.0,16.1,38,0.00,,,0.00,949.0,meteobridge,2013-05-03 18:35:00,
2013-05-03 13:36:00,63.7,37.6,30.14,North,9,2.9,16.1,38,0.00,,,0.00,949.0,meteobridge,2013-05-03 18:36:00,
2013-05-03 13:37:00,63.3,39.2,30.14,WNW,294,4.9,8.9,41,0.00,,,0.00,949.0,meteobridge,2013-05-03 18:37:00,
2013-05-03 13:39:00,63.1,38.5,30.14,NNW,329,6.0,10.1,40,0.00,,,0.00,84.0,meteobridge,2013-05-03 18:39:00,
2013-05-03 13:40:00,63.9,40.3,30.14,NNW,328,6.9,6.9,42,0.00,,,0.00,84.0,meteobridge,2013-05-03 18:40:00,
2013-05-03 13:42:00,63.9,39.7,30.14,WNW,287,2.9,8.1,41,0.00,,,0.00,84.0,meteobridge,2013-05-03 18:42:00,
2013-05-03 13:44:00,63.9,39.0,30.14,North,5,2.9,13.0,40,0.00,,,0.00,84.0,meteobridge,2013-05-03 18:44:00,
2013-05-03 13:46:00,64.0,40.5,30.13,WNW,290,2.9,10.1,42,0.00,,,0.00,84.0,meteobridge,2013-05-03 18:46:00,
2013-05-03 13:47:00,64.4,41.4,30.13,NE,46,0.9,6.0,43,0.00,,,0.00,84.0,meteobridge,2013-05-03 18:47:00,
2013-05-03 13:48:00,64.8,41.7,30.13,NW,316,6.0,6.0,43,0.00,,,0.00,84.0,meteobridge,2013-05-03 18:48:00,
2013-05-03 13:49:00,65.8,42.1,30.13,NW,323,2.0,8.1,42,0.00,,,0.00,84.0,meteobridge,2013-05-03 18:49:00,
2013-05-03 13:52:00,66.7,43.0,30.13,WNW,284,6.0,6.9,42,0.00,,,0.00,165.0,meteobridge,2013-05-03 18:52:00,
2013-05-03 13:53:00,66.4,37.9,30.13,NNW,331,6.9,6.9,35,0.00,,,0.00,223.0,meteobridge,2013-05-03 18:53:00,
2013-05-03 13:54:00,65.5,37.0,30.13,WSW,250,10.1,11.0,35,0.00,,,0.00,388.0,meteobridge,2013-05-03 18:54:00,
2013-05-03 13:57:00,64.4,36.9,30.13,NE,39,4.9,15.0,36,0.00,,,0.00,731.0,meteobridge,2013-05-03 18:57:00,
2013-05-03 13:58:00,64.2,36.7,30.13,NNE,18,2.9,13.0,36,0.00,,,0.00,828.0,meteobridge,2013-05-03 18:58:00,
2013-05-03 14:00:00,65.1,38.1,30.13,NNW,348,2.9,6.9,37,0.00,,,0.00,942.0,meteobridge,2013-05-03 19:00:00,
2013-05-03 14:03:00,66.2,38.5,30.13,NNW,331,4.9,4.9,36,0.00,,,0.00,963.0,meteobridge,2013-05-03 19:03:00,
2013-05-03 14:04:00,66.2,38.5,30.13,NNW,344,4.0,6.9,36,0.00,,,0.00,963.0,meteobridge,2013-05-03 19:04:00,
2013-05-03 14:06:00,65.8,36.7,30.13,NW,320,2.9,6.9,34,0.00,,,0.00,963.0,meteobridge,2013-05-03 19:06:00,
2013-05-03 14:09:00,65.3,37.6,30.13,North,355,2.9,11.0,36,0.00,,,0.00,962.0,meteobridge,2013-05-03 19:09:00,
2013-05-03 14:10:00,64.8,35.8,30.13,NNE,25,6.9,12.1,34,0.00,,,0.00,962.0,meteobridge,2013-05-03 19:10:00,
2013-05-03 14:11:00,64.9,37.4,30.12,North,355,2.0,19.0,36,0.00,,,0.00,962.0,meteobridge,2013-05-03 19:11:00,
2013-05-03 14:14:00,65.1,37.6,30.13,NNW,327,4.0,10.1,36,0.00,,,0.00,958.0,meteobridge,2013-05-03 19:14:00,
2013-05-03 14:15:00,65.1,36.9,30.13,NNW,336,2.9,6.9,35,0.00,,,0.00,954.0,meteobridge,2013-05-03 19:15:00,
2013-05-03 14:16:00,65.8,38.1,30.13,WSW,256,4.0,6.9,36,0.00,,,0.00,956.0,meteobridge,2013-05-03 19:16:00,
2013-05-03 14:20:00,65.7,36.5,30.13,WNW,292,4.0,15.0,34,0.00,,,0.00,951.0,meteobridge,2013-05-03 19:20:00,
2013-05-03 14:21:00,65.7,38.7,30.13,North,355,4.0,15.0,37,0.00,,,0.00,949.0,meteobridge,2013-05-03 19:21:00,
2013-05-03 14:22:00,65.8,36.7,30.12,West,266,4.0,11.0,34,0.00,,,0.00,949.0,meteobridge,2013-05-03 19:22:00,
2013-05-03 14:25:00,64.9,34.3,30.13,WNW,290,6.0,17.0,32,0.00,,,0.00,951.0,meteobridge,2013-05-03 19:25:00,
2013-05-03 14:26:00,64.9,34.3,30.13,West,277,10.1,17.0,32,0.00,,,0.00,947.0,meteobridge,2013-05-03 19:26:00,
2013-05-03 14:27:00,64.9,35.1,30.13,NNW,340,6.9,17.0,33,0.00,,,0.00,947.0,meteobridge,2013-05-03 19:27:00,
2013-05-03 14:31:00,65.1,34.5,30.13,NNE,12,8.1,8.9,32,0.00,,,0.00,940.0,meteobridge,2013-05-03 19:31:00,
2013-05-03 14:32:00,65.1,33.8,30.12,NNW,334,10.1,10.1,31,0.00,,,0.00,939.0,meteobridge,2013-05-03 19:32:00,
2013-05-03 14:33:00,64.8,33.4,30.12,East,90,2.0,10.1,31,0.00,,,0.00,935.0,meteobridge,2013-05-03 19:33:00,
2013-05-03 14:36:00,64.9,35.1,30.12,NNW,346,4.9,6.9,33,0.00,,,0.00,925.0,meteobridge,2013-05-03 19:36:00,
2013-05-03 14:37:00,65.1,35.2,30.12,WNW,298,2.0,6.9,33,0.00,,,0.00,926.0,meteobridge,2013-05-03 19:37:00,
2013-05-03 14:38:00,65.1,35.2,30.12,NNW,343,0.9,6.9,33,0.00,,,0.00,923.0,meteobridge,2013-05-03 19:38:00,
2013-05-03 14:39:00,65.5,38.5,30.12,NNE,12,0.9,6.9,37,0.00,,,0.00,923.0,meteobridge,2013-05-03 19:39:00,
2013-05-03 14:41:00,66.6,35.1,30.12,WNW,293,2.0,12.1,31,0.00,,,0.00,919.0,meteobridge,2013-05-03 19:41:00,
2013-05-03 14:43:00,66.0,35.2,30.12,NW,323,2.9,12.1,32,0.00,,,0.00,918.0,meteobridge,2013-05-03 19:43:00,
2013-05-03 14:44:00,66.0,36.1,30.12,WNW,296,2.9,12.1,33,0.00,,,0.00,918.0,meteobridge,2013-05-03 19:44:00,
2013-05-03 14:45:00,66.0,37.6,30.12,WNW,289,2.0,8.9,35,0.00,,,0.00,912.0,meteobridge,2013-05-03 19:45:00,
2013-05-03 14:47:00,65.8,36.7,30.11,West,278,8.9,16.1,34,0.00,,,0.00,911.0,meteobridge,2013-05-03 19:47:00,
2013-05-03 14:49:00,65.7,37.2,30.11,NNW,328,2.0,8.9,35,0.00,,,0.00,907.0,meteobridge,2013-05-03 19:49:00,
2013-05-03 14:50:00,66.4,38.7,30.11,West,272,6.0,8.9,36,0.00,,,0.00,905.0,meteobridge,2013-05-03 19:50:00,
2013-05-03 14:52:00,66.7,36.7,30.11,WNW,284,2.9,8.1,33,0.00,,,0.00,902.0,meteobridge,2013-05-03 19:52:00,
2013-05-03 14:54:00,67.5,37.4,30.11,NW,311,2.9,6.0,33,0.00,,,0.00,900.0,meteobridge,2013-05-03 19:54:00,
2013-05-03 14:56:00,66.6,36.5,30.11,North,5,4.9,11.0,33,0.00,,,0.00,893.0,meteobridge,2013-05-03 19:56:00,
2013-05-03 14:57:00,66.7,38.3,30.11,NNW,345,2.9,11.0,35,0.00,,,0.00,893.0,meteobridge,2013-05-03 19:57:00,
2013-05-03 14:59:00,66.4,36.3,30.11,NW,317,4.0,12.1,33,0.00,,,0.00,888.0,meteobridge,2013-05-03 19:59:00,
2013-05-03 15:01:00,66.0,36.9,30.11,NNW,342,4.9,8.1,34,0.00,,,0.00,884.0,meteobridge,2013-05-03 20:01:00,
2013-05-03 15:02:00,66.0,36.9,30.10,West,272,2.0,8.9,34,0.00,,,0.00,884.0,meteobridge,2013-05-03 20:02:00,
2013-05-03 15:03:00,66.0,36.9,30.11,NW,306,8.9,8.9,34,0.00,,,0.00,881.0,meteobridge,2013-05-03 20:03:00,
2013-05-03 15:05:00,65.5,34.0,30.11,NW,309,2.9,12.1,31,0.00,,,0.00,879.0,meteobridge,2013-05-03 20:05:00,
2013-05-03 15:07:00,65.1,35.2,30.11,WNW,303,4.9,13.0,33,0.00,,,0.00,868.0,meteobridge,2013-05-03 20:07:00,
2013-05-03 15:09:00,64.8,35.8,30.10,NNW,334,4.9,12.1,34,0.00,,,0.00,865.0,meteobridge,2013-05-03 20:09:00,
2013-05-03 15:10:00,65.7,38.7,30.10,WNW,289,2.9,12.1,37,0.00,,,0.00,858.0,meteobridge,2013-05-03 20:10:00,
2013-05-03 15:11:00,65.8,38.8,30.10,WNW,289,0.9,12.1,37,0.00,,,0.00,858.0,meteobridge,2013-05-03 20:11:00,
2013-05-03 15:12:00,66.6,39.6,30.10,NNW,331,2.9,8.1,37,0.00,,,0.00,858.0,meteobridge,2013-05-03 20:12:00,
2013-05-03 15:14:00,67.5,38.1,30.10,NW,316,6.0,10.1,34,0.00,,,0.00,858.0,meteobridge,2013-05-03 20:14:00,
2013-05-03 15:16:00,66.9,35.2,30.10,NNW,327,2.0,16.1,31,0.00,,,0.00,854.0,meteobridge,2013-05-03 20:16:00,
2013-05-03 15:18:00,66.7,36.0,30.10,West,281,4.0,8.9,32,0.00,,,0.00,847.0,meteobridge,2013-05-03 20:18:00,
2013-05-03 15:19:00,66.2,34.7,30.10,NE,45,6.9,8.9,31,0.00,,,0.00,849.0,meteobridge,2013-05-03 20:19:00,
2013-05-03 15:20:00,65.8,35.2,30.09,NNW,338,2.0,8.9,32,0.00,,,0.00,847.0,meteobridge,2013-05-03 20:20:00,
2013-05-03 15:22:00,66.2,36.3,30.09,NNE,32,0.9,8.1,33,0.00,,,0.00,840.0,meteobridge,2013-05-03 20:22:00,
2013-05-03 15:23:00,66.2,36.3,30.09,NW,304,6.0,8.1,33,0.00,,,0.00,840.0,meteobridge,2013-05-03 20:23:00,
2013-05-03 15:24:00,66.4,35.6,30.09,West,261,4.9,14.1,32,0.00,,,0.00,833.0,meteobridge,2013-05-03 20:24:00,
2013-05-03 15:25:00,66.4,37.9,30.09,WNW,298,6.0,14.1,35,0.00,,,0.00,833.0,meteobridge,2013-05-03 20:25:00,
2013-05-03 15:28:00,66.2,38.5,30.09,NNE,30,2.0,11.0,36,0.00,,,0.00,830.0,meteobridge,2013-05-03 20:28:00,
2013-05-03 15:29:00,66.0,35.2,30.09,NW,304,13.0,13.0,32,0.00,,,0.00,824.0,meteobridge,2013-05-03 20:29:00,
2013-05-03 15:31:00,66.0,35.2,30.09,NNW,344,0.9,8.1,32,0.00,,,0.00,817.0,meteobridge,2013-05-03 20:31:00,
2013-05-03 15:33:00,66.4,36.3,30.09,WNW,285,10.1,11.0,33,0.00,,,0.00,816.0,meteobridge,2013-05-03 20:33:00,
2013-05-03 15:34:00,66.0,34.5,30.09,NNW,344,6.0,14.1,31,0.00,,,0.00,814.0,meteobridge,2013-05-03 20:34:00,
2013-05-03 15:37:00,66.0,36.9,30.08,WNW,302,6.9,8.9,34,0.00,,,0.00,803.0,meteobridge,2013-05-03 20:37:00,
2013-05-03 15:38:00,66.0,36.1,30.08,NNW,330,2.0,8.1,33,0.00,,,0.00,802.0,meteobridge,2013-05-03 20:38:00,
2013-05-03 15:39:00,66.2,37.0,30.08,North,355,6.0,13.0,34,0.00,,,0.00,802.0,meteobridge,2013-05-03 20:39:00,
2013-05-03 15:40:00,65.8,34.3,30.08,West,279,2.0,13.0,31,0.00,,,0.00,800.0,meteobridge,2013-05-03 20:40:00,
2013-05-03 15:43:00,65.7,35.8,30.08,NW,314,4.0,12.1,33,0.00,,,0.00,788.0,meteobridge,2013-05-03 20:43:00,
2013-05-03 15:44:00,65.5,34.0,30.08,NNW,329,4.0,12.1,31,0.00,,,0.00,788.0,meteobridge,2013-05-03 20:44:00,
2013-05-03 15:45:00,65.7,35.8,30.08,West,279,2.9,8.1,33,0.00,,,0.00,780.0,meteobridge,2013-05-03 20:45:00,
2013-05-03 15:48:00,66.0,35.2,30.08,NNE,19,2.9,6.0,32,0.00,,,0.00,779.0,meteobridge,2013-05-03 20:48:00,
2013-05-03 15:49:00,66.0,35.2,30.08,North,5,4.0,6.0,32,0.00,,,0.00,772.0,meteobridge,2013-05-03 20:49:00,
2013-05-03 15:50:00,66.0,34.5,30.07,North,355,4.9,8.9,31,0.00,,,0.00,772.0,meteobridge,2013-05-03 20:50:00,
2013-05-03 15:52:00,65.5,34.9,30.07,West,281,2.9,14.1,32,0.00,,,0.00,729.0,meteobridge,2013-05-03 20:52:00,
2013-05-03 15:54:00,65.3,36.1,30.07,NNW,346,4.9,14.1,34,0.00,,,0.00,729.0,meteobridge,2013-05-03 20:54:00,
2013-05-03 15:57:00,65.5,35.6,30.07,West,269,0.9,6.0,33,0.00,,,0.00,86.0,meteobridge,2013-05-03 20:57:00,
2013-05-03 15:58:00,65.7,36.5,30.07,NE,36,11.0,11.0,34,0.00,,,0.00,86.0,meteobridge,2013-05-03 20:58:00,
2013-05-03 15:59:00,65.8,35.2,30.07,WNW,286,2.0,12.1,32,0.00,,,0.00,181.0,meteobridge,2013-05-03 20:59:00,
2013-05-03 16:00:00,65.8,34.3,30.07,North,0,4.9,12.1,31,0.00,,,0.00,167.0,meteobridge,2013-05-03 21:00:00,
2013-05-03 16:02:00,65.8,36.0,30.07,NNW,336,0.9,6.0,33,0.00,,,0.00,81.0,meteobridge,2013-05-03 21:02:00,
2013-05-03 16:03:00,66.0,36.9,30.07,NE,34,4.9,13.0,34,0.00,,,0.00,139.0,meteobridge,2013-05-03 21:03:00,
2013-05-03 16:04:00,66.0,35.2,30.07,West,265,6.0,13.0,32,0.00,,,0.00,183.0,meteobridge,2013-05-03 21:04:00,
2013-05-03 16:05:00,66.0,36.1,30.07,West,265,4.0,13.0,33,0.00,,,0.00,183.0,meteobridge,2013-05-03 21:05:00,
2013-05-03 16:06:00,65.8,36.0,30.07,NE,36,6.0,6.0,33,0.00,,,0.00,130.0,meteobridge,2013-05-03 21:06:00,
2013-05-03 16:08:00,66.0,36.9,30.07,West,265,4.9,6.9,34,0.00,,,0.00,83.0,meteobridge,2013-05-03 21:08:00,
2013-05-03 16:09:00,66.2,35.4,30.08,NNW,345,2.9,8.9,32,0.00,,,0.00,95.0,meteobridge,2013-05-03 21:09:00,
2013-05-03 16:10:00,66.0,35.2,30.07,NW,321,0.9,8.9,32,0.00,,,0.00,95.0,meteobridge,2013-05-03 21:10:00,
2013-05-03 16:11:00,66.0,34.5,30.08,West,273,2.9,10.1,31,0.00,,,0.00,102.0,meteobridge,2013-05-03 21:11:00,
2013-05-03 16:13:00,65.5,32.4,30.07,NW,313,0.0,11.0,29,0.00,,,0.00,102.0,meteobridge,2013-05-03 21:13:00,
2013-05-03 16:14:00,65.1,33.8,30.07,NNW,338,2.9,8.9,31,0.00,,,0.00,248.0,meteobridge,2013-05-03 21:14:00,
2013-05-03 16:15:00,65.3,34.7,30.07,NNW,342,6.9,6.9,32,0.00,,,0.00,248.0,meteobridge,2013-05-03 21:15:00,
2013-05-03 16:16:00,65.5,34.9,30.07,NW,325,0.9,6.9,32,0.00,,,0.00,248.0,meteobridge,2013-05-03 21:16:00,
2013-05-03 16:17:00,65.7,35.1,30.07,WNW,287,6.0,6.9,32,0.00,,,0.00,248.0,meteobridge,2013-05-03 21:17:00,
2013-05-03 16:20:00,65.7,35.8,30.07,WNW,288,0.9,8.1,33,0.00,,,0.00,478.0,meteobridge,2013-05-03 21:20:00,
2013-05-03 16:21:00,66.0,36.1,30.07,WSW,251,6.0,6.0,33,0.00,,,0.00,478.0,meteobridge,2013-05-03 21:21:00,
2013-05-03 16:22:00,66.0,36.1,30.07,NNW,338,13.0,13.0,33,0.00,,,0.00,478.0,meteobridge,2013-05-03 21:22:00,
2013-05-03 16:23:00,66.0,34.5,30.07,WNW,301,4.9,14.1,31,0.00,,,0.00,373.0,meteobridge,2013-05-03 21:23:00,
2013-05-03 16:25:00,65.7,35.1,30.08,NW,311,6.0,11.0,32,0.00,,,0.00,373.0,meteobridge,2013-05-03 21:25:00,
2013-05-03 16:26:00,65.7,35.1,30.07,WNW,303,8.1,11.0,32,0.00,,,0.00,121.0,meteobridge,2013-05-03 21:26:00,
2013-05-03 16:27:00,65.7,33.4,30.07,WNW,292,2.9,11.0,30,0.00,,,0.00,121.0,meteobridge,2013-05-03 21:27:00,
2013-05-03 16:29:00,65.3,33.8,30.07,North,11,8.1,10.1,31,0.00,,,0.00,121.0,meteobridge,2013-05-03 21:29:00,
2013-05-03 16:32:00,64.8,33.4,30.07,NNW,338,4.0,17.0,31,0.00,,,0.00,195.0,meteobridge,2013-05-03 21:32:00,
2013-05-03 16:33:00,64.6,33.3,30.07,West,273,8.1,12.1,31,0.00,,,0.00,195.0,meteobridge,2013-05-03 21:33:00,
2013-05-03 16:35:00,64.9,34.3,30.07,WNW,290,4.9,10.1,32,0.00,,,0.00,383.0,meteobridge,2013-05-03 21:35:00,
2013-05-03 16:37:00,65.3,34.7,30.07,ENE,71,0.9,8.9,32,0.00,,,0.00,192.0,meteobridge,2013-05-03 21:37:00,
2013-05-03 16:38:00,65.7,36.5,30.07,NNE,21,8.9,8.9,34,0.00,,,0.00,436.0,meteobridge,2013-05-03 21:38:00,
2013-05-03 16:39:00,65.8,36.0,30.07,NW,309,4.0,8.9,33,0.00,,,0.00,436.0,meteobridge,2013-05-03 21:39:00,
2013-05-03 16:40:00,66.0,35.2,30.07,North,355,8.9,8.9,32,0.00,,,0.00,489.0,meteobridge,2013-05-03 21:40:00,
2013-05-03 16:42:00,66.0,35.2,30.07,NW,321,2.9,10.1,32,0.00,,,0.00,246.0,meteobridge,2013-05-03 21:42:00,
2013-05-03 16:43:00,66.0,35.2,30.07,West,268,4.0,10.1,32,0.00,,,0.00,343.0,meteobridge,2013-05-03 21:43:00,
2013-05-03 16:44:00,66.4,37.2,30.07,NW,309,2.9,6.0,34,0.00,,,0.00,343.0,meteobridge,2013-05-03 21:44:00,
2013-05-03 16:45:00,66.6,36.5,30.07,NW,323,2.9,6.0,33,0.00,,,0.00,450.0,meteobridge,2013-05-03 21:45:00,
2013-05-03 16:47:00,66.4,35.6,30.07,West,276,6.9,8.9,32,0.00,,,0.00,541.0,meteobridge,2013-05-03 21:47:00,
2013-05-03 16:48:00,66.4,35.6,30.07,SW,223,8.1,8.9,32,0.00,,,0.00,541.0,meteobridge,2013-05-03 21:48:00,
2013-05-03 16:49:00,66.2,34.7,30.07,North,349,4.0,14.1,31,0.00,,,0.00,111.0,meteobridge,2013-05-03 21:49:00,
2013-05-03 16:50:00,66.4,35.6,30.07,NW,321,8.1,8.9,32,0.00,,,0.00,135.0,meteobridge,2013-05-03 21:50:00,
2013-05-03 16:51:00,66.6,35.1,30.07,WNW,292,4.0,11.0,31,0.00,,,0.00,135.0,meteobridge,2013-05-03 21:51:00,
2013-05-03 16:53:00,66.0,34.5,30.07,ENE,57,4.0,8.9,31,0.00,,,0.00,127.0,meteobridge,2013-05-03 21:53:00,
2013-05-03 16:54:00,66.2,35.4,30.07,NNW,337,2.0,8.1,32,0.00,,,0.00,127.0,meteobridge,2013-05-03 21:54:00,
2013-05-03 16:56:00,66.0,33.6,30.07,West,273,8.9,12.1,30,0.00,,,0.00,301.0,meteobridge,2013-05-03 21:56:00,
2013-05-03 16:57:00,65.8,33.6,30.07,North,349,2.0,15.0,30,0.00,,,0.00,563.0,meteobridge,2013-05-03 21:57:00,
2013-05-03 16:58:00,65.8,33.6,30.07,WNW,299,2.9,15.0,30,0.00,,,0.00,559.0,meteobridge,2013-05-03 21:58:00,
2013-05-03 16:59:00,65.8,33.6,30.07,West,272,4.0,13.0,30,0.00,,,0.00,559.0,meteobridge,2013-05-03 21:59:00,
2013-05-03 17:00:00,66.0,35.2,30.07,NNW,347,0.9,6.0,32,0.00,,,0.00,552.0,meteobridge,2013-05-03 22:00:00,
2013-05-03 17:02:00,66.6,35.1,30.07,NW,315,0.9,6.0,31,0.00,,,0.00,548.0,meteobridge,2013-05-03 22:02:00,
2013-05-03 17:03:00,66.9,35.2,30.07,WNW,282,4.0,4.9,31,0.00,,,0.00,541.0,meteobridge,2013-05-03 22:03:00,
2013-05-03 17:04:00,66.9,33.6,30.07,WNW,301,2.0,8.9,29,0.00,,,0.00,538.0,meteobridge,2013-05-03 22:04:00,
2013-05-03 17:06:00,66.7,33.4,30.07,NW,321,4.9,8.9,29,0.00,,,0.00,533.0,meteobridge,2013-05-03 22:06:00,
2013-05-03 17:07:00,66.6,33.3,30.07,NNE,20,4.0,11.0,29,0.00,,,0.00,527.0,meteobridge,2013-05-03 22:07:00,
2013-05-03 17:09:00,66.7,32.5,30.07,NW,322,4.0,14.1,28,0.00,,,0.00,520.0,meteobridge,2013-05-03 22:09:00,
2013-05-03 17:10:00,66.6,34.2,30.07,WNW,284,4.0,14.1,30,0.00,,,0.00,519.0,meteobridge,2013-05-03 22:10:00,
2013-05-03 17:11:00,66.4,34.0,30.07,NW,305,2.9,8.1,30,0.00,,,0.00,517.0,meteobridge,2013-05-03 22:11:00,
2013-05-03 17:12:00,66.2,32.2,30.07,WNW,301,0.9,6.9,28,0.00,,,0.00,512.0,meteobridge,2013-05-03 22:12:00,
2013-05-03 17:15:00,66.4,34.9,30.07,NW,316,0.9,6.0,31,0.00,,,0.00,501.0,meteobridge,2013-05-03 22:15:00,
2013-05-03 17:16:00,66.6,35.1,30.07,NNE,15,2.0,6.0,31,0.00,,,0.00,499.0,meteobridge,2013-05-03 22:16:00,
2013-05-03 17:17:00,66.7,34.3,30.07,NNW,327,10.1,11.0,30,0.00,,,0.00,496.0,meteobridge,2013-05-03 22:17:00,
2013-05-03 17:18:00,66.4,33.1,30.07,WNW,292,6.0,11.0,29,0.00,,,0.00,490.0,meteobridge,2013-05-03 22:18:00,
2013-05-03 17:20:00,65.8,32.7,30.07,NNW,344,0.0,12.1,29,0.00,,,0.00,483.0,meteobridge,2013-05-03 22:20:00,
2013-05-03 17:21:00,65.8,32.7,30.07,NNW,348,2.0,12.1,29,0.00,,,0.00,483.0,meteobridge,2013-05-03 22:21:00,
2013-05-03 17:22:00,65.8,33.6,30.07,WNW,290,4.0,10.1,30,0.00,,,0.00,482.0,meteobridge,2013-05-03 22:22:00,
2013-05-03 17:23:00,65.7,34.2,30.07,WNW,286,2.9,6.0,31,0.00,,,0.00,475.0,meteobridge,2013-05-03 22:23:00,
2013-05-03 17:26:00,66.0,32.9,30.07,NNW,336,2.9,6.9,29,0.00,,,0.00,464.0,meteobridge,2013-05-03 22:26:00,
2013-05-03 17:27:00,66.0,32.9,30.07,NNW,340,2.0,6.9,29,0.00,,,0.00,461.0,meteobridge,2013-05-03 22:27:00,
2013-05-03 17:28:00,66.6,34.2,30.07,WNW,293,2.9,6.0,30,0.00,,,0.00,455.0,meteobridge,2013-05-03 22:28:00,
2013-05-03 17:31:00,66.4,34.0,30.07,NNW,340,0.9,8.1,30,0.00,,,0.00,445.0,meteobridge,2013-05-03 22:31:00,
2013-05-03 17:32:00,66.6,35.1,30.07,North,5,2.9,8.1,31,0.00,,,0.00,439.0,meteobridge,2013-05-03 22:32:00,
2013-05-03 17:34:00,66.2,33.8,30.07,NNW,338,6.9,8.1,30,0.00,,,0.00,432.0,meteobridge,2013-05-03 22:34:00,
2013-05-03 17:36:00,66.0,34.5,30.07,North,9,4.0,14.1,31,0.00,,,0.00,427.0,meteobridge,2013-05-03 22:36:00,
2013-05-03 17:37:00,66.2,36.3,30.07,NNW,334,0.0,6.9,33,0.00,,,0.00,424.0,meteobridge,2013-05-03 22:37:00,
2013-05-03 17:38:00,66.6,35.1,30.07,WNW,283,2.0,6.9,31,0.00,,,0.00,420.0,meteobridge,2013-05-03 22:38:00,
2013-05-03 17:41:00,66.4,34.0,30.07,NE,46,0.9,6.9,30,0.00,,,0.00,408.0,meteobridge,2013-05-03 22:41:00,
2013-05-03 17:42:00,66.4,34.0,30.08,NNE,19,4.9,6.9,30,0.00,,,0.00,406.0,meteobridge,2013-05-03 22:42:00,
2013-05-03 17:43:00,66.6,34.2,30.07,NNW,328,6.0,6.9,30,0.00,,,0.00,403.0,meteobridge,2013-05-03 22:43:00,
2013-05-03 17:44:00,66.4,34.0,30.07,WNW,286,4.9,8.1,30,0.00,,,0.00,396.0,meteobridge,2013-05-03 22:44:00,
2013-05-03 17:47:00,65.7,33.4,30.07,NNW,328,2.0,6.9,30,0.00,,,0.00,383.0,meteobridge,2013-05-03 22:47:00,
2013-05-03 17:48:00,65.5,34.0,30.07,WNW,292,0.9,4.0,31,0.00,,,0.00,378.0,meteobridge,2013-05-03 22:48:00,
2013-05-03 17:49:00,65.5,34.0,30.07,WNW,284,2.9,4.0,31,0.00,,,0.00,378.0,meteobridge,2013-05-03 22:49:00,
2013-05-03 17:52:00,66.4,34.9,30.07,NNW,343,2.0,4.9,31,0.00,,,0.00,364.0,meteobridge,2013-05-03 22:52:00,
2013-05-03 17:54:00,66.6,35.1,30.07,NNW,335,2.0,2.9,31,0.00,,,0.00,359.0,meteobridge,2013-05-03 22:54:00,
2013-05-03 17:55:00,66.6,35.8,30.07,NW,322,4.9,6.9,32,0.00,,,0.00,353.0,meteobridge,2013-05-03 22:55:00,
2013-05-03 17:57:00,66.7,36.0,30.07,North,0,2.0,4.9,32,0.00,,,0.00,346.0,meteobridge,2013-05-03 22:57:00,
2013-05-03 17:59:00,66.7,35.1,30.07,NW,320,2.0,4.9,31,0.00,,,0.00,338.0,meteobridge,2013-05-03 22:59:00,
2013-05-03 18:00:00,66.7,35.1,30.07,WNW,291,2.9,4.9,31,0.00,,,0.00,334.0,meteobridge,2013-05-03 23:00:00,
2013-05-03 18:02:00,66.4,34.9,30.07,North,9,4.0,4.9,31,0.00,,,0.00,329.0,meteobridge,2013-05-03 23:02:00,
2013-05-03 18:03:00,66.0,33.6,30.07,NW,325,2.9,8.1,30,0.00,,,0.00,322.0,meteobridge,2013-05-03 23:03:00,
2013-05-03 18:05:00,65.7,34.2,30.07,NW,322,2.9,10.1,31,0.00,,,0.00,315.0,meteobridge,2013-05-03 23:05:00,
2013-05-03 18:06:00,65.3,35.4,30.07,NW,313,0.0,8.1,33,0.00,,,0.00,311.0,meteobridge,2013-05-03 23:06:00,
2013-05-03 18:08:00,64.9,34.3,30.07,NNW,344,0.0,6.9,32,0.00,,,0.00,302.0,meteobridge,2013-05-03 23:08:00,
2013-05-03 18:09:00,64.9,35.1,30.07,NW,309,2.0,6.9,33,0.00,,,0.00,302.0,meteobridge,2013-05-03 23:09:00,
2013-05-03 18:10:00,64.9,35.1,30.07,NNW,336,2.0,4.0,33,0.00,,,0.00,297.0,meteobridge,2013-05-03 23:10:00,
2013-05-03 18:11:00,64.8,34.2,30.07,NW,315,2.9,8.1,32,0.00,,,0.00,294.0,meteobridge,2013-05-03 23:11:00,
2013-05-03 18:13:00,64.4,34.0,30.07,WNW,296,0.0,12.1,32,0.00,,,0.00,100.0,meteobridge,2013-05-03 23:13:00,
2013-05-03 18:15:00,64.2,33.8,30.07,NNW,344,4.9,6.9,32,0.00,,,0.00,100.0,meteobridge,2013-05-03 23:15:00,
2013-05-03 18:17:00,64.2,34.5,30.07,NNW,344,0.0,6.0,33,0.00,,,0.00,165.0,meteobridge,2013-05-03 23:17:00,
2013-05-03 18:20:00,64.0,34.3,30.06,NNW,329,2.9,8.9,33,0.00,,,0.00,63.0,meteobridge,2013-05-03 23:20:00,
2013-05-03 18:21:00,64.0,33.6,30.07,NNW,338,0.0,6.0,32,0.00,,,0.00,63.0,meteobridge,2013-05-03 23:21:00,
2013-05-03 18:23:00,64.0,34.3,30.07,NNW,342,4.0,8.9,33,0.00,,,0.00,70.0,meteobridge,2013-05-03 23:23:00,
2013-05-03 18:26:00,63.9,34.2,30.07,WNW,284,2.0,4.9,33,0.00,,,0.00,107.0,meteobridge,2013-05-03 23:26:00,
2013-05-03 18:27:00,63.9,34.2,30.07,WNW,298,4.9,4.9,33,0.00,,,0.00,98.0,meteobridge,2013-05-03 23:27:00,
2013-05-03 18:28:00,63.7,34.0,30.07,NE,39,4.0,4.9,33,0.00,,,0.00,128.0,meteobridge,2013-05-03 23:28:00,
2013-05-03 18:31:00,63.5,34.7,30.07,NW,318,2.0,2.9,34,0.00,,,0.00,95.0,meteobridge,2013-05-03 23:31:00,
2013-05-03 18:32:00,63.5,35.4,30.07,North,355,2.0,2.9,35,0.00,,,0.00,95.0,meteobridge,2013-05-03 23:32:00,
2013-05-03 18:34:00,63.5,33.8,30.07,North,5,0.9,6.0,33,0.00,,,0.00,56.0,meteobridge,2013-05-03 23:34:00,
2013-05-03 18:36:00,63.3,34.5,30.07,NW,325,0.0,6.0,34,0.00,,,0.00,53.0,meteobridge,2013-05-03 23:36:00,
2013-05-03 18:37:00,63.3,34.5,30.07,NW,325,0.0,4.9,34,0.00,,,0.00,53.0,meteobridge,2013-05-03 23:37:00,
2013-05-03 18:38:00,63.3,34.5,30.07,NNE,20,2.0,2.9,34,0.00,,,0.00,54.0,meteobridge,2013-05-03 23:38:00,
2013-05-03 18:40:00,63.3,34.5,30.07,NW,308,0.9,2.9,34,0.00,,,0.00,51.0,meteobridge,2013-05-03 23:40:00,
2013-05-03 18:42:00,63.1,34.3,30.07,NW,323,2.0,4.0,34,0.00,,,0.00,54.0,meteobridge,2013-05-03 23:42:00,
2013-05-03 18:43:00,63.0,33.4,30.07,NNW,327,4.0,8.9,33,0.00,,,0.00,58.0,meteobridge,2013-05-03 23:43:00,
2013-05-03 18:44:00,63.0,33.4,30.07,NNW,340,2.9,8.9,33,0.00,,,0.00,63.0,meteobridge,2013-05-03 23:44:00,
2013-05-03 18:46:00,62.8,34.0,30.07,WNW,282,6.0,14.1,34,0.00,,,0.00,62.0,meteobridge,2013-05-03 23:46:00,
2013-05-03 18:48:00,62.8,33.3,30.07,NW,315,0.9,14.1,33,0.00,,,0.00,53.0,meteobridge,2013-05-03 23:48:00,
2013-05-03 18:50:00,62.8,34.7,30.07,West,268,2.9,4.9,35,0.00,,,0.00,58.0,meteobridge,2013-05-03 23:50:00,
2013-05-03 18:52:00,62.8,35.4,30.07,NNW,331,0.9,4.0,36,0.00,,,0.00,90.0,meteobridge,2013-05-03 23:52:00,
2013-05-03 18:53:00,62.8,34.7,30.07,NNW,330,0.9,4.9,35,0.00,,,0.00,102.0,meteobridge,2013-05-03 23:53:00,
2013-05-03 18:54:00,62.6,34.5,30.07,NNW,343,2.0,4.9,35,0.00,,,0.00,114.0,meteobridge,2013-05-03 23:54:00,
2013-05-03 18:55:00,62.8,35.4,30.07,North,5,0.0,4.0,36,0.00,,,0.00,107.0,meteobridge,2013-05-03 23:55:00,
2013-05-03 18:56:00,62.6,35.2,30.07,NNW,334,2.9,4.0,36,0.00,,,0.00,100.0,meteobridge,2013-05-03 23:56:00,
2013-05-03 18:57:00,62.4,33.6,30.07,NNW,338,2.0,4.9,34,0.00,,,0.00,84.0,meteobridge,2013-05-03 23:57:00,
2013-05-03 18:59:00,62.4,35.8,30.07,North,350,2.0,2.9,37,0.00,,,0.00,93.0,meteobridge,2013-05-03 23:59:00,
2013-05-03 19:00:00,62.2,34.9,30.07,NNW,342,0.0,2.9,36,0.00,,,0.00,105.0,meteobridge,2013-05-04 00:00:00,
2013-05-03 19:02:00,62.2,34.9,30.07,WNW,292,2.0,4.9,36,0.00,,,0.00,97.0,meteobridge,2013-05-04 00:02:00,
2013-05-03 19:05:00,62.1,34.9,30.07,NW,324,2.0,4.0,36,0.00,,,0.00,51.0,meteobridge,2013-05-04 00:05:00,
2013-05-03 19:06:00,62.1,35.4,30.07,NW,315,2.9,2.9,37,0.00,,,0.00,49.0,meteobridge,2013-05-04 00:06:00,
2013-05-03 19:07:00,61.9,36.7,30.07,WNW,303,0.0,2.9,39,0.00,,,0.00,58.0,meteobridge,2013-05-04 00:07:00,
2013-05-03 19:11:00,61.3,35.6,30.07,WNW,283,2.9,4.0,38,0.00,,,0.00,40.0,meteobridge,2013-05-04 00:11:00,
2013-05-03 19:12:00,61.2,35.4,30.07,NW,312,2.0,6.0,38,0.00,,,0.00,40.0,meteobridge,2013-05-04 00:12:00,
2013-05-03 19:14:00,61.2,36.0,30.08,WNW,300,0.9,4.0,39,0.00,,,0.00,33.0,meteobridge,2013-05-04 00:14:00,
2013-05-03 19:17:00,61.0,35.2,30.08,West,280,0.9,8.1,38,0.00,,,0.00,32.0,meteobridge,2013-05-04 00:17:00,
2013-05-03 19:19:00,60.6,34.2,30.08,NNE,30,0.9,4.0,37,0.00,,,0.00,30.0,meteobridge,2013-05-04 00:19:00,
2013-05-03 19:22:00,60.6,34.9,30.08,NNW,348,0.0,6.9,38,0.00,,,0.00,28.0,meteobridge,2013-05-04 00:22:00,
2013-05-03 19:23:00,60.6,36.1,30.08,NNW,348,0.0,2.0,40,0.00,,,0.00,28.0,meteobridge,2013-05-04 00:23:00,
2013-05-03 19:25:00,60.3,38.3,30.08,NNW,348,0.0,0.0,44,0.00,,,0.00,26.0,meteobridge,2013-05-04 00:25:00,
2013-05-03 19:26:00,59.9,37.9,30.08,NNW,348,0.0,0.0,44,0.00,,,0.00,25.0,meteobridge,2013-05-04 00:26:00,
2013-05-03 19:28:00,59.5,36.5,30.08,North,350,0.9,2.0,42,0.00,,,0.00,25.0,meteobridge,2013-05-04 00:28:00,
2013-05-03 19:30:00,59.5,38.1,30.08,North,350,0.0,0.9,45,0.00,,,0.00,23.0,meteobridge,2013-05-04 00:30:00,
2013-05-03 19:32:00,59.0,38.8,30.08,North,350,0.0,0.0,47,0.00,,,0.00,21.0,meteobridge,2013-05-04 00:32:00,
2013-05-03 19:33:00,58.6,37.9,30.08,North,350,0.0,0.0,46,0.00,,,0.00,21.0,meteobridge,2013-05-04 00:33:00,
2013-05-03 19:36:00,58.3,38.7,30.08,North,350,0.0,0.0,48,0.00,,,0.00,18.0,meteobridge,2013-05-04 00:36:00,
2013-05-03 19:37:00,58.1,38.5,30.08,North,350,0.0,0.0,48,0.00,,,0.00,18.0,meteobridge,2013-05-04 00:37:00,
2013-05-03 19:38:00,57.7,39.2,30.08,North,350,0.0,0.0,50,0.00,,,0.00,16.0,meteobridge,2013-05-04 00:38:00,
2013-05-03 19:39:00,57.7,40.3,30.08,North,350,0.0,0.0,52,0.00,,,0.00,16.0,meteobridge,2013-05-04 00:39:00,
2013-05-03 19:42:00,57.2,40.6,30.08,North,350,0.0,0.0,54,0.00,,,0.00,14.0,meteobridge,2013-05-04 00:42:00,
2013-05-03 19:43:00,56.7,41.5,30.08,North,350,0.0,0.0,57,0.00,,,0.00,12.0,meteobridge,2013-05-04 00:43:00,
2013-05-03 19:44:00,56.5,41.0,30.08,North,350,0.0,0.0,56,0.00,,,0.00,12.0,meteobridge,2013-05-04 00:44:00,
2013-05-03 19:45:00,56.1,40.6,30.08,North,350,0.0,0.0,56,0.00,,,0.00,11.0,meteobridge,2013-05-04 00:45:00,
2013-05-03 19:47:00,55.9,40.5,30.08,North,350,0.0,0.0,56,0.00,,,0.00,11.0,meteobridge,2013-05-04 00:47:00,
2013-05-03 19:48:00,55.8,41.7,30.08,North,350,0.0,0.0,59,0.00,,,0.00,9.0,meteobridge,2013-05-04 00:48:00,
2013-05-03 19:50:00,55.6,41.9,30.08,North,350,0.0,0.0,60,0.00,,,0.00,9.0,meteobridge,2013-05-04 00:50:00,
2013-05-03 19:52:00,55.2,42.1,30.09,North,350,0.0,0.0,61,0.00,,,0.00,7.0,meteobridge,2013-05-04 00:52:00,
2013-05-03 19:53:00,55.0,41.9,30.08,North,350,0.0,0.0,61,0.00,,,0.00,7.0,meteobridge,2013-05-04 00:53:00,
2013-05-03 19:57:00,54.3,41.5,30.09,North,350,0.0,0.0,62,0.00,,,0.00,0.0,meteobridge,2013-05-04 00:57:00,
2013-05-03 19:58:00,54.1,41.9,30.09,North,350,0.0,0.0,63,0.00,,,0.00,0.0,meteobridge,2013-05-04 00:58:00,
2013-05-03 20:01:00,53.8,42.3,30.09,North,350,0.0,0.0,65,0.00,,,0.00,0.0,meteobridge,2013-05-04 01:01:00,
2013-05-03 20:03:00,53.4,42.3,30.09,North,350,0.0,0.0,66,0.00,,,0.00,0.0,meteobridge,2013-05-04 01:03:00,
2013-05-03 20:04:00,53.4,41.9,30.09,North,350,0.0,0.0,65,0.00,,,0.00,0.0,meteobridge,2013-05-04 01:04:00,
2013-05-03 20:05:00,53.2,41.7,30.09,North,350,0.0,0.0,65,0.00,,,0.00,0.0,meteobridge,2013-05-04 01:05:00,
2013-05-03 20:07:00,52.9,41.9,30.09,North,350,0.0,0.0,66,0.00,,,0.00,0.0,meteobridge,2013-05-04 01:07:00,
2013-05-03 20:08:00,52.9,41.9,30.09,North,350,0.0,0.0,66,0.00,,,0.00,0.0,meteobridge,2013-05-04 01:08:00,
2013-05-03 20:10:00,52.5,42.3,30.09,North,350,0.0,0.0,68,0.00,,,0.00,0.0,meteobridge,2013-05-04 01:10:00,
2013-05-03 20:11:00,52.2,41.5,30.09,North,350,0.0,0.0,67,0.00,,,0.00,0.0,meteobridge,2013-05-04 01:11:00,
2013-05-03 20:13:00,52.0,41.4,30.09,North,350,0.0,0.0,67,0.00,,,0.00,0.0,meteobridge,2013-05-04 01:13:00,
2013-05-03 20:14:00,52.0,41.4,30.09,North,350,0.0,0.0,67,0.00,,,0.00,0.0,meteobridge,2013-05-04 01:14:00,
2013-05-03 20:16:00,51.6,41.4,30.09,North,350,0.0,0.0,68,0.00,,,0.00,0.0,meteobridge,2013-05-04 01:16:00,
2013-05-03 20:17:00,51.6,41.4,30.09,North,350,0.0,0.0,68,0.00,,,0.00,0.0,meteobridge,2013-05-04 01:17:00,
2013-05-03 20:18:00,51.4,41.5,30.09,North,350,0.0,0.9,69,0.00,,,0.00,0.0,meteobridge,2013-05-04 01:18:00,
2013-05-03 20:20:00,51.4,41.9,30.09,North,350,0.0,0.0,70,0.00,,,0.00,0.0,meteobridge,2013-05-04 01:20:00,
2013-05-03 20:21:00,51.4,42.4,30.09,North,350,0.0,0.0,71,0.00,,,0.00,0.0,meteobridge,2013-05-04 01:21:00,
2013-05-03 20:24:00,50.9,42.3,30.09,North,350,0.0,0.0,72,0.00,,,0.00,0.0,meteobridge,2013-05-04 01:24:00,
2013-05-03 20:26:00,50.7,42.4,30.09,North,350,0.0,0.0,73,0.00,,,0.00,0.0,meteobridge,2013-05-04 01:26:00,
2013-05-03 20:27:00,50.5,42.6,30.09,North,350,0.0,0.0,74,0.00,,,0.00,0.0,meteobridge,2013-05-04 01:27:00,
2013-05-03 20:28:00,50.5,42.6,30.09,North,350,0.0,0.0,74,0.00,,,0.00,0.0,meteobridge,2013-05-04 01:28:00,
2013-05-03 20:30:00,50.4,42.4,30.09,North,350,0.0,0.0,74,0.00,,,0.00,0.0,meteobridge,2013-05-04 01:30:00,
2013-05-03 20:33:00,49.8,41.9,30.09,North,350,0.0,0.0,74,0.00,,,0.00,0.0,meteobridge,2013-05-04 01:33:00,
2013-05-03 20:35:00,49.6,41.7,30.10,North,350,0.0,0.0,74,0.00,,,0.00,0.0,meteobridge,2013-05-04 01:35:00,
2013-05-03 20:36:00,49.5,41.9,30.10,North,350,0.0,0.0,75,0.00,,,0.00,0.0,meteobridge,2013-05-04 01:36:00,
2013-05-03 20:37:00,49.5,41.9,30.10,North,350,0.0,0.0,75,0.00,,,0.00,0.0,meteobridge,2013-05-04 01:37:00,
2013-05-03 20:38:00,49.3,42.1,30.10,North,350,0.0,0.0,76,0.00,,,0.00,0.0,meteobridge,2013-05-04 01:38:00,
2013-05-03 20:41:00,49.1,41.9,30.09,North,350,0.0,0.0,76,0.00,,,0.00,0.0,meteobridge,2013-05-04 01:41:00,
2013-05-03 20:42:00,48.9,41.7,30.10,North,350,0.0,0.0,76,0.00,,,0.00,0.0,meteobridge,2013-05-04 01:42:00,
2013-05-03 20:43:00,48.9,41.7,30.09,North,350,0.0,0.0,76,0.00,,,0.00,0.0,meteobridge,2013-05-04 01:43:00,
2013-05-03 20:44:00,48.7,41.5,30.10,North,350,0.0,0.0,76,0.00,,,0.00,0.0,meteobridge,2013-05-04 01:44:00,
2013-05-03 20:46:00,48.7,41.9,30.10,North,350,0.0,0.0,77,0.00,,,0.00,0.0,meteobridge,2013-05-04 01:46:00,
2013-05-03 20:48:00,48.6,41.7,30.10,North,350,0.0,0.0,77,0.00,,,0.00,0.0,meteobridge,2013-05-04 01:48:00,
2013-05-03 20:49:00,48.4,41.9,30.10,North,350,0.0,0.0,78,0.00,,,0.00,0.0,meteobridge,2013-05-04 01:49:00,
2013-05-03 20:50:00,48.4,41.5,30.10,North,350,0.0,0.0,77,0.00,,,0.00,0.0,meteobridge,2013-05-04 01:50:00,
2013-05-03 20:51:00,48.4,41.5,30.10,North,350,0.0,0.0,77,0.00,,,0.00,0.0,meteobridge,2013-05-04 01:51:00,
2013-05-03 20:54:00,48.0,41.9,30.10,North,350,0.0,0.0,79,0.00,,,0.00,0.0,meteobridge,2013-05-04 01:54:00,
2013-05-03 20:55:00,48.0,41.9,30.10,North,350,0.0,0.0,79,0.00,,,0.00,0.0,meteobridge,2013-05-04 01:55:00,
2013-05-03 20:56:00,48.0,41.9,30.10,North,350,0.0,0.0,79,0.00,,,0.00,0.0,meteobridge,2013-05-04 01:56:00,
2013-05-03 20:58:00,47.8,41.7,30.10,North,350,0.0,0.0,79,0.00,,,0.00,0.0,meteobridge,2013-05-04 01:58:00,
2013-05-03 21:00:00,47.7,41.7,30.10,North,350,0.0,0.0,80,0.00,,,0.00,0.0,meteobridge,2013-05-04 02:00:00,
2013-05-03 21:01:00,47.7,41.7,30.10,North,350,0.0,0.0,80,0.00,,,0.00,0.0,meteobridge,2013-05-04 02:01:00,
2013-05-03 21:02:00,47.5,41.5,30.10,North,350,0.0,0.0,80,0.00,,,0.00,0.0,meteobridge,2013-05-04 02:02:00,
2013-05-03 21:03:00,47.5,41.9,30.10,North,350,0.0,0.0,81,0.00,,,0.00,0.0,meteobridge,2013-05-04 02:03:00,
2013-05-03 21:06:00,47.3,41.4,30.10,North,350,0.0,0.0,80,0.00,,,0.00,0.0,meteobridge,2013-05-04 02:06:00,
2013-05-03 21:07:00,47.1,41.4,30.11,North,350,0.0,0.0,80,0.00,,,0.00,0.0,meteobridge,2013-05-04 02:07:00,
2013-05-03 21:08:00,47.1,41.5,30.11,North,350,0.0,0.0,81,0.00,,,0.00,0.0,meteobridge,2013-05-04 02:08:00,
2013-05-03 21:09:00,47.1,41.5,30.11,North,350,0.0,0.0,81,0.00,,,0.00,0.0,meteobridge,2013-05-04 02:09:00,
2013-05-03 21:11:00,46.9,41.4,30.11,North,350,0.0,0.0,81,0.00,,,0.00,0.0,meteobridge,2013-05-04 02:11:00,
2013-05-03 21:13:00,46.8,41.2,30.11,North,350,0.0,0.0,81,0.00,,,0.00,0.0,meteobridge,2013-05-04 02:13:00,
2013-05-03 21:14:00,46.8,41.2,30.11,North,350,0.0,0.0,81,0.00,,,0.00,0.0,meteobridge,2013-05-04 02:14:00,
2013-05-03 21:15:00,46.8,41.2,30.11,North,350,0.0,0.0,81,0.00,,,0.00,0.0,meteobridge,2013-05-04 02:15:00,
2013-05-03 21:16:00,46.6,41.0,30.11,North,350,0.0,0.0,81,0.00,,,0.00,0.0,meteobridge,2013-05-04 02:16:00,
2013-05-03 21:19:00,46.4,41.2,30.11,North,350,0.0,0.0,82,0.00,,,0.00,0.0,meteobridge,2013-05-04 02:19:00,
2013-05-03 21:20:00,46.2,41.0,30.11,North,350,0.0,0.0,82,0.00,,,0.00,0.0,meteobridge,2013-05-04 02:20:00,
2013-05-03 21:21:00,46.2,41.0,30.11,North,350,0.0,0.0,82,0.00,,,0.00,0.0,meteobridge,2013-05-04 02:21:00,
2013-05-03 21:22:00,46.2,41.0,30.11,North,350,0.0,0.0,82,0.00,,,0.00,0.0,meteobridge,2013-05-04 02:22:00,
2013-05-03 21:25:00,46.0,40.8,30.11,North,350,0.0,0.0,82,0.00,,,0.00,0.0,meteobridge,2013-05-04 02:25:00,
2013-05-03 21:26:00,45.9,41.0,30.11,North,350,0.0,0.0,83,0.00,,,0.00,0.0,meteobridge,2013-05-04 02:26:00,
2013-05-03 21:27:00,45.9,41.0,30.11,North,350,0.0,0.0,83,0.00,,,0.00,0.0,meteobridge,2013-05-04 02:27:00,
2013-05-03 21:30:00,45.9,41.0,30.11,North,350,0.0,0.0,83,0.00,,,0.00,0.0,meteobridge,2013-05-04 02:30:00,
2013-05-03 21:31:00,45.7,40.8,30.11,North,350,0.0,0.0,83,0.00,,,0.00,0.0,meteobridge,2013-05-04 02:31:00,
2013-05-03 21:32:00,45.7,40.8,30.11,North,350,0.0,0.0,83,0.00,,,0.00,0.0,meteobridge,2013-05-04 02:32:00,
2013-05-03 21:33:00,45.7,41.2,30.11,North,350,0.0,0.0,84,0.00,,,0.00,0.0,meteobridge,2013-05-04 02:33:00,
2013-05-03 21:37:00,45.3,40.8,30.11,North,350,0.0,0.0,84,0.00,,,0.00,0.0,meteobridge,2013-05-04 02:37:00,
2013-05-03 21:38:00,45.3,41.0,30.11,North,350,0.0,0.0,85,0.00,,,0.00,0.0,meteobridge,2013-05-04 02:38:00,
2013-05-03 21:39:00,45.3,41.0,30.11,North,350,0.0,0.0,85,0.00,,,0.00,0.0,meteobridge,2013-05-04 02:39:00,
2013-05-03 21:41:00,45.1,40.8,30.11,North,350,0.0,0.0,85,0.00,,,0.00,0.0,meteobridge,2013-05-04 02:41:00,
2013-05-03 21:44:00,45.0,40.5,30.11,North,350,0.0,0.0,84,0.00,,,0.00,0.0,meteobridge,2013-05-04 02:44:00,
2013-05-03 21:45:00,44.8,40.3,30.11,North,350,0.0,0.0,84,0.00,,,0.00,0.0,meteobridge,2013-05-04 02:45:00,
2013-05-03 21:47:00,44.8,40.5,30.11,North,350,0.0,0.0,85,0.00,,,0.00,0.0,meteobridge,2013-05-04 02:47:00,
2013-05-03 21:49:00,44.8,40.5,30.12,North,350,0.0,0.0,85,0.00,,,0.00,0.0,meteobridge,2013-05-04 02:49:00,
2013-05-03 21:51:00,44.6,40.5,30.12,North,350,0.0,0.0,85,0.00,,,0.00,0.0,meteobridge,2013-05-04 02:51:00,
2013-05-03 21:52:00,44.6,40.5,30.12,North,350,0.0,0.0,85,0.00,,,0.00,0.0,meteobridge,2013-05-04 02:52:00,
2013-05-03 21:54:00,44.4,40.5,30.12,North,350,0.0,0.0,86,0.00,,,0.00,0.0,meteobridge,2013-05-04 02:54:00,
2013-05-03 21:55:00,44.4,40.5,30.12,North,350,0.0,0.0,86,0.00,,,0.00,0.0,meteobridge,2013-05-04 02:55:00,
2013-05-03 21:58:00,44.2,40.3,30.12,North,350,0.0,0.0,86,0.00,,,0.00,0.0,meteobridge,2013-05-04 02:58:00,
2013-05-03 21:59:00,44.2,40.3,30.12,North,350,0.0,0.0,86,0.00,,,0.00,0.0,meteobridge,2013-05-04 02:59:00,
2013-05-03 22:00:00,44.2,40.3,30.12,North,350,0.0,0.0,86,0.00,,,0.00,0.0,meteobridge,2013-05-04 03:00:00,
2013-05-03 22:01:00,44.2,40.3,30.12,North,350,0.0,0.0,86,0.00,,,0.00,0.0,meteobridge,2013-05-04 03:01:00,
2013-05-03 22:03:00,44.1,40.5,30.12,North,350,0.0,0.0,87,0.00,,,0.00,0.0,meteobridge,2013-05-04 03:03:00,
2013-05-03 22:04:00,44.1,40.5,30.12,North,350,0.0,0.0,87,0.00,,,0.00,0.0,meteobridge,2013-05-04 03:04:00,
2013-05-03 22:05:00,44.1,40.5,30.12,North,350,0.0,0.0,87,0.00,,,0.00,0.0,meteobridge,2013-05-04 03:05:00,
2013-05-03 22:06:00,44.1,40.5,30.12,North,350,0.0,0.0,87,0.00,,,0.00,0.0,meteobridge,2013-05-04 03:06:00,
2013-05-03 22:07:00,43.9,40.3,30.12,North,350,0.0,0.0,87,0.00,,,0.00,0.0,meteobridge,2013-05-04 03:07:00,
2013-05-03 22:09:00,43.9,40.3,30.12,North,350,0.0,0.0,87,0.00,,,0.00,0.0,meteobridge,2013-05-04 03:09:00,
2013-05-03 22:10:00,43.7,40.1,30.12,North,350,0.0,0.0,87,0.00,,,0.00,0.0,meteobridge,2013-05-04 03:10:00,
2013-05-03 22:12:00,43.5,39.9,30.12,North,350,0.0,0.0,87,0.00,,,0.00,0.0,meteobridge,2013-05-04 03:12:00,
2013-05-03 22:14:00,43.5,40.3,30.12,North,350,0.0,0.0,88,0.00,,,0.00,0.0,meteobridge,2013-05-04 03:14:00,
2013-05-03 22:15:00,43.5,40.3,30.12,North,350,0.0,0.0,88,0.00,,,0.00,0.0,meteobridge,2013-05-04 03:15:00,
2013-05-03 22:16:00,43.5,40.3,30.12,North,350,0.0,0.0,88,0.00,,,0.00,0.0,meteobridge,2013-05-04 03:16:00,
2013-05-03 22:20:00,43.2,39.9,30.12,North,350,0.0,0.0,88,0.00,,,0.00,0.0,meteobridge,2013-05-04 03:20:00,
2013-05-03 22:21:00,43.2,39.9,30.12,North,350,0.0,0.0,88,0.00,,,0.00,0.0,meteobridge,2013-05-04 03:21:00,
2013-05-03 22:22:00,43.2,39.9,30.12,North,350,0.0,0.0,88,0.00,,,0.00,0.0,meteobridge,2013-05-04 03:22:00,
2013-05-03 22:26:00,43.0,39.7,30.12,North,350,0.0,0.0,88,0.00,,,0.00,0.0,meteobridge,2013-05-04 03:26:00,
2013-05-03 22:27:00,43.0,39.9,30.12,North,350,0.0,0.0,89,0.00,,,0.00,0.0,meteobridge,2013-05-04 03:27:00,
2013-05-03 22:28:00,42.8,39.7,30.12,North,350,0.0,0.0,89,0.00,,,0.00,0.0,meteobridge,2013-05-04 03:28:00,
2013-05-03 22:29:00,42.8,39.7,30.12,North,350,0.0,0.0,89,0.00,,,0.00,0.0,meteobridge,2013-05-04 03:29:00,
2013-05-03 22:31:00,42.6,39.6,30.12,North,350,0.0,0.0,89,0.00,,,0.00,0.0,meteobridge,2013-05-04 03:31:00,
2013-05-03 22:32:00,42.6,39.6,30.12,North,350,0.0,0.0,89,0.00,,,0.00,0.0,meteobridge,2013-05-04 03:32:00,
2013-05-03 22:34:00,42.4,39.4,30.12,North,350,0.0,0.0,89,0.00,,,0.00,0.0,meteobridge,2013-05-04 03:34:00,
2013-05-03 22:35:00,42.4,39.4,30.12,North,350,0.0,0.0,89,0.00,,,0.00,0.0,meteobridge,2013-05-04 03:35:00,
2013-05-03 22:37:00,42.4,39.4,30.12,North,350,0.0,0.0,89,0.00,,,0.00,0.0,meteobridge,2013-05-04 03:37:00,
2013-05-03 22:38:00,42.4,39.4,30.12,North,350,0.0,0.0,89,0.00,,,0.00,0.0,meteobridge,2013-05-04 03:38:00,
2013-05-03 22:39:00,42.4,39.7,30.12,North,350,0.0,0.0,90,0.00,,,0.00,0.0,meteobridge,2013-05-04 03:39:00,
2013-05-03 22:42:00,42.4,39.4,30.12,North,350,0.0,0.0,89,0.00,,,0.00,0.0,meteobridge,2013-05-04 03:42:00,
2013-05-03 22:43:00,42.4,39.4,30.12,North,350,0.0,0.0,89,0.00,,,0.00,0.0,meteobridge,2013-05-04 03:43:00,
2013-05-03 22:47:00,42.3,39.2,30.12,North,350,0.0,0.0,89,0.00,,,0.00,0.0,meteobridge,2013-05-04 03:47:00,
2013-05-03 22:48:00,42.1,39.0,30.12,North,350,0.0,0.0,89,0.00,,,0.00,0.0,meteobridge,2013-05-04 03:48:00,
2013-05-03 22:49:00,42.1,39.0,30.12,North,350,0.0,0.0,89,0.00,,,0.00,0.0,meteobridge,2013-05-04 03:49:00,
2013-05-03 22:52:00,42.1,39.0,30.12,North,350,0.0,0.0,89,0.00,,,0.00,0.0,meteobridge,2013-05-04 03:52:00,
2013-05-03 22:53:00,42.1,39.0,30.12,North,350,0.0,0.0,89,0.00,,,0.00,0.0,meteobridge,2013-05-04 03:53:00,
2013-05-03 22:55:00,42.1,39.4,30.12,North,350,0.0,0.0,90,0.00,,,0.00,0.0,meteobridge,2013-05-04 03:55:00,
2013-05-03 22:56:00,42.1,39.0,30.12,North,350,0.0,0.0,89,0.00,,,0.00,0.0,meteobridge,2013-05-04 03:56:00,
2013-05-03 22:57:00,42.1,39.0,30.12,North,350,0.0,0.0,89,0.00,,,0.00,0.0,meteobridge,2013-05-04 03:57:00,
2013-05-03 22:58:00,41.9,38.8,30.12,North,350,0.0,0.0,89,0.00,,,0.00,0.0,meteobridge,2013-05-04 03:58:00,
2013-05-03 22:59:00,41.7,39.0,30.12,North,350,0.0,0.0,90,0.00,,,0.00,0.0,meteobridge,2013-05-04 03:59:00,
2013-05-03 23:00:00,41.7,39.0,30.12,North,350,0.0,0.0,90,0.00,,,0.00,0.0,meteobridge,2013-05-04 04:00:00,
2013-05-03 23:01:00,41.7,39.0,30.12,North,350,0.0,0.0,90,0.00,,,0.00,0.0,meteobridge,2013-05-04 04:01:00,
2013-05-03 23:02:00,41.5,38.8,30.12,North,350,0.0,0.0,90,0.00,,,0.00,0.0,meteobridge,2013-05-04 04:02:00,
2013-05-03 23:06:00,41.4,38.7,30.12,North,350,0.0,0.0,90,0.00,,,0.00,0.0,meteobridge,2013-05-04 04:06:00,
2013-05-03 23:07:00,41.4,38.7,30.12,North,350,0.0,0.0,90,0.00,,,0.00,0.0,meteobridge,2013-05-04 04:07:00,
2013-05-03 23:08:00,41.4,38.7,30.12,North,350,0.0,0.0,90,0.00,,,0.00,0.0,meteobridge,2013-05-04 04:08:00,
2013-05-03 23:12:00,41.4,39.0,30.12,North,350,0.0,0.0,91,0.00,,,0.00,0.0,meteobridge,2013-05-04 04:12:00,
2013-05-03 23:13:00,41.2,38.8,30.12,North,350,0.0,0.0,91,0.00,,,0.00,0.0,meteobridge,2013-05-04 04:13:00,
2013-05-03 23:17:00,41.2,38.8,30.12,North,350,0.0,0.0,91,0.00,,,0.00,0.0,meteobridge,2013-05-04 04:17:00,
2013-05-03 23:19:00,40.8,38.5,30.12,North,350,0.0,0.0,91,0.00,,,0.00,0.0,meteobridge,2013-05-04 04:19:00,
2013-05-03 23:24:00,40.6,38.3,30.12,North,350,0.0,0.0,91,0.00,,,0.00,0.0,meteobridge,2013-05-04 04:24:00,
2013-05-03 23:25:00,40.6,38.3,30.12,North,350,0.0,0.0,91,0.00,,,0.00,0.0,meteobridge,2013-05-04 04:25:00,
2013-05-03 23:26:00,40.6,38.3,30.12,North,350,0.0,0.0,91,0.00,,,0.00,0.0,meteobridge,2013-05-04 04:26:00,
2013-05-03 23:27:00,40.5,38.1,30.12,North,350,0.0,0.0,91,0.00,,,0.00,0.0,meteobridge,2013-05-04 04:27:00,
2013-05-03 23:30:00,40.5,38.1,30.12,North,350,0.0,0.0,91,0.00,,,0.00,0.0,meteobridge,2013-05-04 04:30:00,
2013-05-03 23:31:00,40.3,37.9,30.12,North,350,0.0,0.0,91,0.00,,,0.00,0.0,meteobridge,2013-05-04 04:31:00,
2013-05-03 23:32:00,40.3,37.9,30.12,North,350,0.0,0.0,91,0.00,,,0.00,0.0,meteobridge,2013-05-04 04:32:00,
2013-05-03 23:34:00,40.3,37.9,30.12,North,350,0.0,0.0,91,0.00,,,0.00,0.0,meteobridge,2013-05-04 04:34:00,
2013-05-03 23:35:00,40.3,37.9,30.12,North,350,0.0,0.0,91,0.00,,,0.00,0.0,meteobridge,2013-05-04 04:35:00,
2013-05-03 23:36:00,40.3,37.9,30.12,North,350,0.0,0.0,91,0.00,,,0.00,0.0,meteobridge,2013-05-04 04:36:00,
2013-05-03 23:37:00,40.3,37.9,30.12,North,350,0.0,0.0,91,0.00,,,0.00,0.0,meteobridge,2013-05-04 04:37:00,
2013-05-03 23:40:00,40.1,37.9,30.12,North,350,0.0,0.0,92,0.00,,,0.00,0.0,meteobridge,2013-05-04 04:40:00,
2013-05-03 23:41:00,40.1,37.9,30.12,North,350,0.0,0.0,92,0.00,,,0.00,0.0,meteobridge,2013-05-04 04:41:00,
2013-05-03 23:42:00,40.1,37.9,30.12,North,350,0.0,0.0,92,0.00,,,0.00,0.0,meteobridge,2013-05-04 04:42:00,
2013-05-03 23:43:00,39.9,37.8,30.12,North,350,0.0,0.0,92,0.00,,,0.00,0.0,meteobridge,2013-05-04 04:43:00,
2013-05-03 23:46:00,39.9,37.8,30.12,North,350,0.0,0.0,92,0.00,,,0.00,0.0,meteobridge,2013-05-04 04:46:00,
2013-05-03 23:47:00,39.9,37.8,30.12,North,350,0.0,0.0,92,0.00,,,0.00,0.0,meteobridge,2013-05-04 04:47:00,
2013-05-03 23:48:00,39.9,37.8,30.12,North,350,0.0,0.0,92,0.00,,,0.00,0.0,meteobridge,2013-05-04 04:48:00,
2013-05-03 23:49:00,39.9,37.8,30.12,North,350,0.0,0.0,92,0.00,,,0.00,0.0,meteobridge,2013-05-04 04:49:00,
2013-05-03 23:52:00,39.9,37.8,30.12,North,350,0.0,0.0,92,0.00,,,0.00,0.0,meteobridge,2013-05-04 04:52:00,
2013-05-03 23:53:00,39.7,37.6,30.12,North,350,0.0,0.0,92,0.00,,,0.00,0.0,meteobridge,2013-05-04 04:53:00,
2013-05-03 23:54:00,39.7,37.6,30.11,North,350,0.0,0.0,92,0.00,,,0.00,0.0,meteobridge,2013-05-04 04:54:00,
2013-05-03 23:55:00,39.7,37.6,30.11,North,350,0.0,0.0,92,0.00,,,0.00,0.0,meteobridge,2013-05-04 04:55:00,
2013-05-03 23:57:00,39.7,37.6,30.11,North,350,0.0,0.0,92,0.00,,,0.00,0.0,meteobridge,2013-05-04 04:57:00,
2013-05-03 23:58:00,39.7,37.6,30.12,North,350,0.0,0.0,92,0.00,,,0.00,0.0,meteobridge,2013-05-04 04:58:00,